Wetterdaten: Samstag, 10.10.2020
Datum Zeit Temp. Aussen Temp. o. S. Temp +5cm Feuchte Auss Luftdruck Regen Sonnenschein Regendauer Solar Windben Empfang
10.10.2020 00:00 10,6 C 9,4 C 9,4 C 96 % 1017,2 hPa 0,0 l/m 0 min 0 min 0 W/m 9,7 km/h (2 Bft) 95,74 %
10.10.2020 00:02 10,6 C 9,4 C 9,4 C 96 % 1017,2 hPa 0,0 l/m 0 min 0 min 0 W/m 6,4 km/h (2 Bft) 92,50 %
10.10.2020 00:04 10,6 C 9,4 C 9,4 C 96 % 1017,2 hPa 0,0 l/m 0 min 0 min 0 W/m 9,7 km/h (2 Bft) 97,87 %
10.10.2020 00:07 10,6 C 9,4 C 9,4 C 96 % 1017,3 hPa 0,0 l/m 0 min 0 min 0 W/m 12,9 km/h (3 Bft) 97,40 %
10.10.2020 00:08 10,6 C 9,4 C 9,4 C 96 % 1017,3 hPa 0,0 l/m 0 min 0 min 0 W/m 6,4 km/h (2 Bft) 95,83 %
10.10.2020 00:10 10,6 C 9,4 C 9,4 C 96 % 1017,3 hPa 0,0 l/m 0 min 0 min 0 W/m 9,7 km/h (2 Bft) 97,87 %
10.10.2020 00:12 10,6 C 9,4 C 9,4 C 96 % 1017,3 hPa 0,0 l/m 0 min 0 min 0 W/m 9,7 km/h (2 Bft) 97,83 %
10.10.2020 00:14 10,6 C 9,4 C 9,4 C 96 % 1017,3 hPa 0,0 l/m 0 min 0 min 0 W/m 6,4 km/h (2 Bft) 97,87 %
10.10.2020 00:16 10,6 C 9,4 C 9,4 C 96 % 1017,3 hPa 0,0 l/m 0 min 0 min 0 W/m 12,9 km/h (3 Bft) 100,00 %
10.10.2020 00:18 10,5 C 9,4 C 9,4 C 96 % 1017,4 hPa 0,0 l/m 0 min 0 min 0 W/m 6,4 km/h (2 Bft) 100,00 %
10.10.2020 00:20 10,5 C 9,4 C 9,4 C 96 % 1017,5 hPa 0,0 l/m 0 min 0 min 0 W/m 19,3 km/h (3 Bft) 97,92 %
10.10.2020 00:22 10,5 C 9,4 C 9,4 C 96 % 1017,3 hPa 0,0 l/m 0 min 0 min 0 W/m 6,4 km/h (2 Bft) 100,00 %
10.10.2020 00:24 10,5 C 9,4 C 9,4 C 96 % 1017,4 hPa 0,0 l/m 0 min 0 min 0 W/m 6,4 km/h (2 Bft) 100,00 %
10.10.2020 00:26 10,5 C 9,4 C 9,4 C 96 % 1017,4 hPa 0,0 l/m 0 min 0 min 0 W/m 12,9 km/h (3 Bft) 100,00 %
10.10.2020 00:28 10,6 C 9,4 C 9,4 C 96 % 1017,4 hPa 0,0 l/m 0 min 0 min 0 W/m 16,1 km/h (3 Bft) 97,92 %
10.10.2020 00:30 10,6 C 9,4 C 9,4 C 96 % 1017,2 hPa 0,0 l/m 0 min 0 min 0 W/m 12,9 km/h (3 Bft) 100,00 %
10.10.2020 00:32 10,6 C 9,4 C 9,4 C 96 % 1017,3 hPa 0,0 l/m 0 min 0 min 0 W/m 0,0 km/h (0 Bft) 100,00 %
10.10.2020 00:34 10,6 C 9,4 C 9,4 C 96 % 1017,2 hPa 0,0 l/m 0 min 0 min 0 W/m 6,4 km/h (2 Bft) 100,00 %
10.10.2020 00:36 10,6 C 9,4 C 9,4 C 96 % 1017,3 hPa 0,0 l/m 0 min 0 min 0 W/m 12,9 km/h (3 Bft) 100,00 %
10.10.2020 00:38 10,6 C 9,4 C 9,4 C 96 % 1017,2 hPa 0,0 l/m 0 min 0 min 0 W/m 16,1 km/h (3 Bft) 100,00 %
10.10.2020 00:40 10,6 C 9,4 C 9,4 C 96 % 1017,3 hPa 0,0 l/m 0 min 0 min 0 W/m 16,1 km/h (3 Bft) 100,00 %
10.10.2020 00:42 10,6 C 9,4 C 9,4 C 96 % 1017,2 hPa 0,0 l/m 0 min 0 min 0 W/m 9,7 km/h (2 Bft) 100,00 %
10.10.2020 00:44 10,6 C 9,4 C 9,4 C 96 % 1017,3 hPa 0,0 l/m 0 min 0 min 0 W/m 9,7 km/h (2 Bft) 100,00 %
10.10.2020 00:46 10,6 C 9,4 C 9,4 C 96 % 1017,3 hPa 0,0 l/m 0 min 0 min 0 W/m 6,4 km/h (2 Bft) 100,00 %
10.10.2020 00:48 10,6 C 9,4 C 9,4 C 95 % 1017,3 hPa 0,0 l/m 0 min 0 min 0 W/m 12,9 km/h (3 Bft) 97,87 %
10.10.2020 00:50 10,6 C 9,4 C 9,4 C 95 % 1017,3 hPa 0,0 l/m 0 min 0 min 0 W/m 9,7 km/h (2 Bft) 100,00 %
10.10.2020 00:52 10,6 C 9,4 C 9,4 C 95 % 1017,4 hPa 0,0 l/m 0 min 0 min 0 W/m 25,7 km/h (4 Bft) 100,00 %
10.10.2020 00:54 10,6 C 9,4 C 9,4 C 95 % 1017,4 hPa 0,0 l/m 0 min 0 min 0 W/m 19,3 km/h (3 Bft) 97,92 %
10.10.2020 00:56 10,6 C 9,4 C 9,4 C 95 % 1017,4 hPa 0,0 l/m 0 min 0 min 0 W/m 19,3 km/h (3 Bft) 100,00 %
10.10.2020 00:58 10,6 C 9,4 C 9,4 C 95 % 1017,4 hPa 0,0 l/m 0 min 0 min 0 W/m 16,1 km/h (3 Bft) 100,00 %
10.10.2020 01:00 10,6 C 9,4 C 9,4 C 95 % 1017,3 hPa 0,0 l/m 0 min 0 min 0 W/m 22,5 km/h (4 Bft) 100,00 %
10.10.2020 01:02 10,6 C 9,4 C 9,4 C 95 % 1017,4 hPa 0,0 l/m 0 min 0 min 0 W/m 19,3 km/h (3 Bft) 97,83 %
10.10.2020 01:04 10,7 C 9,4 C 9,4 C 95 % 1017,3 hPa 0,0 l/m 0 min 0 min 0 W/m 12,9 km/h (3 Bft) 100,00 %
10.10.2020 01:06 10,7 C 9,4 C 9,4 C 94 % 1017,4 hPa 0,0 l/m 0 min 0 min 0 W/m 22,5 km/h (4 Bft) 97,87 %
10.10.2020 01:08 10,7 C 9,4 C 9,4 C 94 % 1017,3 hPa 0,0 l/m 0 min 0 min 0 W/m 16,1 km/h (3 Bft) 100,00 %
10.10.2020 01:10 10,7 C 9,4 C 9,4 C 94 % 1017,3 hPa 0,0 l/m 0 min 0 min 0 W/m 9,7 km/h (2 Bft) 100,00 %
10.10.2020 01:12 10,7 C 9,4 C 9,4 C 94 % 1017,3 hPa 0,0 l/m 0 min 0 min 0 W/m 19,3 km/h (3 Bft) 97,83 %
10.10.2020 01:14 10,7 C 9,4 C 9,4 C 94 % 1017,4 hPa 0,0 l/m 0 min 0 min 0 W/m 16,1 km/h (3 Bft) 100,00 %
10.10.2020 01:16 10,7 C 9,4 C 9,4 C 94 % 1017,3 hPa 0,0 l/m 0 min 0 min 0 W/m 12,9 km/h (3 Bft) 97,87 %
10.10.2020 01:18 10,7 C 9,4 C 9,4 C 93 % 1017,4 hPa 0,0 l/m 0 min 0 min 0 W/m 6,4 km/h (2 Bft) 95,74 %
10.10.2020 01:20 10,7 C 9,4 C 9,4 C 93 % 1017,4 hPa 0,0 l/m 0 min 0 min 0 W/m 6,4 km/h (2 Bft) 95,74 %
10.10.2020 01:22 10,7 C 10,0 C 9,4 C 93 % 1017,4 hPa 0,0 l/m 0 min 0 min 0 W/m 6,4 km/h (2 Bft) 95,74 %
10.10.2020 01:24 10,7 C 10,0 C 9,4 C 93 % 1017,4 hPa 0,0 l/m 0 min 0 min 0 W/m 9,7 km/h (2 Bft) 95,65 %
10.10.2020 01:26 10,7 C 10,0 C 9,4 C 93 % 1017,4 hPa 0,0 l/m 0 min 0 min 0 W/m 6,4 km/h (2 Bft) 93,62 %
10.10.2020 01:28 10,7 C 10,0 C 9,4 C 93 % 1017,5 hPa 0,0 l/m 0 min 0 min 0 W/m 3,2 km/h (1 Bft) 95,12 %
10.10.2020 01:30 10,7 C 10,0 C 9,4 C 93 % 1017,5 hPa 0,0 l/m 0 min 0 min 0 W/m 0,0 km/h (0 Bft) 95,83 %
10.10.2020 01:32 10,7 C 10,0 C 9,4 C 93 % 1017,5 hPa 0,0 l/m 0 min 0 min 0 W/m 9,7 km/h (2 Bft) 95,92 %
10.10.2020 01:34 10,7 C 10,0 C 9,4 C 93 % 1017,5 hPa 0,0 l/m 0 min 0 min 0 W/m 12,9 km/h (3 Bft) 93,62 %
10.10.2020 01:36 10,7 C 10,0 C 9,4 C 93 % 1017,5 hPa 0,0 l/m 0 min 0 min 0 W/m 6,4 km/h (2 Bft) 95,74 %
10.10.2020 01:38 10,7 C 10,0 C 9,4 C 93 % 1017,6 hPa 0,0 l/m 0 min 0 min 0 W/m 16,1 km/h (3 Bft) 91,49 %
10.10.2020 01:40 10,7 C 10,0 C 9,4 C 93 % 1017,5 hPa 0,0 l/m 0 min 0 min 0 W/m 6,4 km/h (2 Bft) 95,65 %
10.10.2020 01:42 10,7 C 10,0 C 9,4 C 93 % 1017,5 hPa 0,0 l/m 0 min 0 min 0 W/m 6,4 km/h (2 Bft) 95,74 %
10.10.2020 01:44 10,6 C 10,0 C 9,4 C 93 % 1017,5 hPa 0,0 l/m 0 min 0 min 0 W/m 9,7 km/h (2 Bft) 93,62 %
10.10.2020 01:46 10,6 C 10,0 C 9,4 C 93 % 1017,5 hPa 0,0 l/m 0 min 0 min 0 W/m 6,4 km/h (2 Bft) 96,00 %
10.10.2020 01:48 10,6 C 10,0 C 9,4 C 93 % 1017,6 hPa 0,0 l/m 0 min 0 min 0 W/m 6,4 km/h (2 Bft) 95,74 %
10.10.2020 01:50 10,6 C 10,0 C 9,4 C 93 % 1017,5 hPa 0,0 l/m 0 min 0 min 0 W/m 3,2 km/h (1 Bft) 91,30 %
10.10.2020 01:52 10,6 C 10,0 C 9,4 C 93 % 1017,5 hPa 0,0 l/m 0 min 0 min 0 W/m 9,7 km/h (2 Bft) 91,49 %
10.10.2020 01:54 10,6 C 10,0 C 9,4 C 92 % 1017,6 hPa 0,0 l/m 0 min 0 min 0 W/m 0,0 km/h (0 Bft) 93,62 %
10.10.2020 01:56 10,6 C 9,4 C 9,4 C 92 % 1017,6 hPa 0,0 l/m 0 min 0 min 0 W/m 6,4 km/h (2 Bft) 93,62 %
10.10.2020 01:58 10,6 C 9,4 C 9,4 C 92 % 1017,7 hPa 0,0 l/m 0 min 0 min 0 W/m 3,2 km/h (1 Bft) 91,49 %
10.10.2020 02:00 10,6 C 9,4 C 9,4 C 92 % 1017,7 hPa 0,0 l/m 0 min 0 min 0 W/m 3,2 km/h (1 Bft) 93,62 %
10.10.2020 02:02 10,6 C 9,4 C 9,4 C 92 % 1017,7 hPa 0,0 l/m 0 min 0 min 0 W/m 9,7 km/h (2 Bft) 93,75 %
10.10.2020 02:04 10,6 C 9,4 C 9,4 C 92 % 1017,7 hPa 0,0 l/m 0 min 0 min 0 W/m 3,2 km/h (1 Bft) 93,62 %
10.10.2020 02:06 10,6 C 9,4 C 9,4 C 92 % 1017,8 hPa 0,0 l/m 0 min 0 min 0 W/m 0,0 km/h (0 Bft) 93,62 %
10.10.2020 02:08 10,5 C 9,4 C 9,4 C 92 % 1017,8 hPa 0,0 l/m 0 min 0 min 0 W/m 0,0 km/h (0 Bft) 91,49 %
10.10.2020 02:10 10,5 C 9,4 C 9,4 C 92 % 1017,8 hPa 0,0 l/m 0 min 0 min 0 W/m 0,0 km/h (0 Bft) 95,65 %
10.10.2020 02:12 10,5 C 9,4 C 9,4 C 92 % 1017,8 hPa 0,0 l/m 0 min 0 min 0 W/m 6,4 km/h (2 Bft) 92,86 %
10.10.2020 02:14 10,4 C 9,4 C 9,4 C 92 % 1017,8 hPa 0,0 l/m 0 min 2 min 0 W/m 6,4 km/h (2 Bft) 95,65 %
10.10.2020 02:16 10,4 C 9,4 C 9,4 C 92 % 1017,9 hPa 0,0 l/m 0 min 0 min 0 W/m 6,4 km/h (2 Bft) 95,83 %
10.10.2020 02:18 10,4 C 9,4 C 9,4 C 92 % 1017,8 hPa 0,0 l/m 0 min 0 min 0 W/m 3,2 km/h (1 Bft) 93,75 %
10.10.2020 02:20 10,4 C 9,4 C 9,4 C 92 % 1017,8 hPa 0,0 l/m 0 min 0 min 0 W/m 6,4 km/h (2 Bft) 53,19 %
10.10.2020 02:22 10,4 C 9,4 C 9,4 C 92 % 1017,8 hPa 0,0 l/m 0 min 0 min 0 W/m 9,7 km/h (2 Bft) 95,65 %
10.10.2020 02:24 10,4 C 9,4 C 9,4 C 93 % 1017,8 hPa 0,0 l/m 0 min 0 min 0 W/m 9,7 km/h (2 Bft) 93,48 %
10.10.2020 02:26 10,4 C 9,4 C 9,4 C 93 % 1017,8 hPa 0,0 l/m 0 min 0 min 0 W/m 3,2 km/h (1 Bft) 95,74 %
10.10.2020 02:28 10,4 C 9,4 C 9,4 C 93 % 1017,9 hPa 0,0 l/m 0 min 0 min 0 W/m 0,0 km/h (0 Bft) 97,92 %
10.10.2020 02:30 10,4 C 9,4 C 9,4 C 93 % 1017,9 hPa 0,0 l/m 0 min 0 min 0 W/m 0,0 km/h (0 Bft) 100,00 %
10.10.2020 02:32 10,3 C 9,4 C 9,4 C 93 % 1017,9 hPa 0,0 l/m 0 min 0 min 0 W/m 0,0 km/h (0 Bft) 100,00 %
10.10.2020 02:34 10,3 C 9,4 C 9,4 C 93 % 1017,9 hPa 0,0 l/m 0 min 0 min 0 W/m 0,0 km/h (0 Bft) 100,00 %
10.10.2020 02:36 10,3 C 9,4 C 8,9 C 93 % 1017,9 hPa 0,0 l/m 0 min 2 min 0 W/m 0,0 km/h (0 Bft) 100,00 %
10.10.2020 02:38 10,3 C 9,4 C 8,9 C 93 % 1017,9 hPa 0,0 l/m 0 min 2 min 0 W/m 0,0 km/h (0 Bft) 100,00 %
10.10.2020 02:40 10,3 C 9,4 C 8,9 C 93 % 1017,9 hPa 0,0 l/m 0 min 2 min 0 W/m 6,4 km/h (2 Bft) 100,00 %
10.10.2020 02:42 10,3 C 8,9 C 8,9 C 93 % 1017,9 hPa 0,0 l/m 0 min 2 min 0 W/m 6,4 km/h (2 Bft) 100,00 %
10.10.2020 02:44 10,3 C 8,9 C 8,9 C 93 % 1017,9 hPa 0,0 l/m 0 min 0 min 0 W/m 0,0 km/h (0 Bft) 100,00 %
10.10.2020 02:46 10,3 C 8,9 C 8,9 C 93 % 1018,0 hPa 0,0 l/m 0 min 0 min 0 W/m 3,2 km/h (1 Bft) 100,00 %
10.10.2020 02:48 10,3 C 8,9 C 8,9 C 93 % 1017,9 hPa 0,0 l/m 0 min 0 min 0 W/m 0,0 km/h (0 Bft) 100,00 %
10.10.2020 02:50 10,3 C 8,9 C 8,9 C 93 % 1018,0 hPa 0,0 l/m 0 min 2 min 0 W/m 9,7 km/h (2 Bft) 100,00 %
10.10.2020 02:52 10,3 C 8,9 C 8,9 C 93 % 1018,0 hPa 0,0 l/m 0 min 2 min 0 W/m 6,4 km/h (2 Bft) 100,00 %
10.10.2020 02:54 10,2 C 8,9 C 8,9 C 93 % 1018,0 hPa 0,0 l/m 0 min 0 min 0 W/m 0,0 km/h (0 Bft) 100,00 %
10.10.2020 02:56 10,2 C 8,9 C 8,9 C 93 % 1018,0 hPa 0,0 l/m 0 min 0 min 0 W/m 0,0 km/h (0 Bft) 100,00 %
10.10.2020 02:58 10,2 C 8,9 C 8,9 C 93 % 1018,0 hPa 0,0 l/m 0 min 0 min 0 W/m 0,0 km/h (0 Bft) 97,87 %
10.10.2020 03:00 10,2 C 8,9 C 8,9 C 93 % 1017,8 hPa 0,0 l/m 0 min 0 min 0 W/m 0,0 km/h (0 Bft) 100,00 %
10.10.2020 03:02 10,2 C 8,9 C 8,9 C 93 % 1017,9 hPa 0,0 l/m 0 min 0 min 0 W/m 6,4 km/h (2 Bft) 100,00 %
10.10.2020 03:04 10,2 C 8,9 C 8,9 C 93 % 1018,0 hPa 0,0 l/m 0 min 0 min 0 W/m 6,4 km/h (2 Bft) 100,00 %
10.10.2020 03:06 10,2 C 8,9 C 8,9 C 93 % 1018,0 hPa 0,0 l/m 0 min 0 min 0 W/m 12,9 km/h (3 Bft) 100,00 %
10.10.2020 03:08 10,1 C 8,9 C 8,9 C 93 % 1018,0 hPa 0,0 l/m 0 min 0 min 0 W/m 0,0 km/h (0 Bft) 100,00 %
10.10.2020 03:10 10,1 C 8,9 C 8,9 C 93 % 1018,0 hPa 0,0 l/m 0 min 0 min 0 W/m 3,2 km/h (1 Bft) 100,00 %
10.10.2020 03:12 10,1 C 8,9 C 8,9 C 93 % 1018,1 hPa 0,0 l/m 0 min 0 min 0 W/m 12,9 km/h (3 Bft) 100,00 %
10.10.2020 03:14 10,1 C 8,9 C 8,9 C 93 % 1018,0 hPa 0,0 l/m 0 min 0 min 0 W/m 3,2 km/h (1 Bft) 100,00 %
10.10.2020 03:16 10,1 C 8,9 C 8,9 C 93 % 1018,1 hPa 0,0 l/m 0 min 0 min 0 W/m 6,4 km/h (2 Bft) 100,00 %
10.10.2020 03:18 10,1 C 8,9 C 8,9 C 93 % 1018,1 hPa 0,0 l/m 0 min 0 min 0 W/m 6,4 km/h (2 Bft) 100,00 %
10.10.2020 03:20 10,1 C 8,9 C 8,9 C 93 % 1018,1 hPa 0,0 l/m 0 min 0 min 0 W/m 3,2 km/h (1 Bft) 97,62 %
10.10.2020 03:22 10,0 C 8,9 C 8,9 C 93 % 1018,1 hPa 0,0 l/m 0 min 0 min 0 W/m 3,2 km/h (1 Bft) 97,83 %
10.10.2020 03:24 10,0 C 8,9 C 8,9 C 93 % 1018,2 hPa 0,0 l/m 0 min 0 min 0 W/m 6,4 km/h (2 Bft) 100,00 %
10.10.2020 03:26 10,0 C 8,9 C 8,9 C 93 % 1018,1 hPa 0,0 l/m 0 min 0 min 0 W/m 6,4 km/h (2 Bft) 100,00 %
10.10.2020 03:28 9,9 C 8,9 C 8,9 C 93 % 1018,2 hPa 0,0 l/m 0 min 0 min 0 W/m 0,0 km/h (0 Bft) 100,00 %
10.10.2020 03:30 9,9 C 8,9 C 8,9 C 93 % 1018,2 hPa 0,0 l/m 0 min 0 min 0 W/m 0,0 km/h (0 Bft) 100,00 %
10.10.2020 03:32 9,9 C 8,9 C 8,9 C 93 % 1018,2 hPa 0,0 l/m 0 min 0 min 0 W/m 3,2 km/h (1 Bft) 100,00 %
10.10.2020 03:34 9,9 C 8,9 C 8,9 C 93 % 1018,2 hPa 0,0 l/m 0 min 0 min 0 W/m 0,0 km/h (0 Bft) 100,00 %
10.10.2020 03:36 9,9 C 8,9 C 8,9 C 93 % 1018,2 hPa 0,0 l/m 0 min 0 min 0 W/m 0,0 km/h (0 Bft) 100,00 %
10.10.2020 03:38 9,9 C 8,9 C 8,9 C 93 % 1018,2 hPa 0,0 l/m 0 min 0 min 0 W/m 3,2 km/h (1 Bft) 100,00 %
10.10.2020 03:40 9,9 C 8,9 C 8,9 C 93 % 1018,2 hPa 0,0 l/m 0 min 0 min 0 W/m 3,2 km/h (1 Bft) 100,00 %
10.10.2020 03:42 9,8 C 8,9 C 8,3 C 93 % 1018,2 hPa 0,0 l/m 0 min 0 min 0 W/m 0,0 km/h (0 Bft) 100,00 %
10.10.2020 03:44 9,8 C 8,9 C 8,3 C 93 % 1018,3 hPa 0,0 l/m 0 min 0 min 0 W/m 0,0 km/h (0 Bft) 100,00 %
10.10.2020 03:46 9,8 C 8,9 C 8,3 C 93 % 1018,3 hPa 0,0 l/m 0 min 0 min 0 W/m 0,0 km/h (0 Bft) 100,00 %
10.10.2020 03:48 9,8 C 8,3 C 8,3 C 94 % 1018,3 hPa 0,0 l/m 0 min 0 min 0 W/m 0,0 km/h (0 Bft) 100,00 %
10.10.2020 03:50 9,8 C 8,3 C 8,3 C 94 % 1018,3 hPa 0,0 l/m 0 min 0 min 0 W/m 3,2 km/h (1 Bft) 97,87 %
10.10.2020 03:52 9,8 C 8,3 C 8,3 C 94 % 1018,3 hPa 0,0 l/m 0 min 0 min 0 W/m 6,4 km/h (2 Bft) 100,00 %
10.10.2020 03:54 9,7 C 8,3 C 8,3 C 94 % 1018,4 hPa 0,0 l/m 0 min 0 min 0 W/m 3,2 km/h (1 Bft) 100,00 %
10.10.2020 03:56 9,7 C 8,3 C 8,3 C 94 % 1018,3 hPa 0,0 l/m 0 min 0 min 0 W/m 6,4 km/h (2 Bft) 100,00 %
10.10.2020 03:58 9,7 C 8,3 C 8,3 C 94 % 1018,4 hPa 0,0 l/m 0 min 0 min 0 W/m 3,2 km/h (1 Bft) 100,00 %
10.10.2020 04:00 9,7 C 8,3 C 8,3 C 94 % 1018,4 hPa 0,0 l/m 0 min 0 min 0 W/m 0,0 km/h (0 Bft) 95,12 %
10.10.2020 04:02 9,6 C 8,3 C 8,3 C 94 % 1018,4 hPa 0,0 l/m 0 min 0 min 0 W/m 0,0 km/h (0 Bft) 100,00 %
10.10.2020 04:04 9,6 C 8,3 C 8,3 C 93 % 1018,5 hPa 0,0 l/m 0 min 0 min 0 W/m 3,2 km/h (1 Bft) 100,00 %
10.10.2020 04:06 9,6 C 8,3 C 8,3 C 94 % 1018,5 hPa 0,0 l/m 0 min 0 min 0 W/m 0,0 km/h (0 Bft) 100,00 %
10.10.2020 04:08 9,6 C 8,3 C 8,3 C 94 % 1018,4 hPa 0,0 l/m 0 min 0 min 0 W/m 0,0 km/h (0 Bft) 95,74 %
10.10.2020 04:10 9,6 C 8,3 C 8,3 C 94 % 1018,4 hPa 0,0 l/m 0 min 0 min 0 W/m 0,0 km/h (0 Bft) 97,87 %
10.10.2020 04:12 9,5 C 8,3 C 8,3 C 94 % 1018,4 hPa 0,0 l/m 0 min 0 min 0 W/m 3,2 km/h (1 Bft) 97,87 %
10.10.2020 04:14 9,5 C 8,3 C 8,3 C 94 % 1018,5 hPa 0,0 l/m 0 min 0 min 0 W/m 0,0 km/h (0 Bft) 97,87 %
10.10.2020 04:16 9,5 C 8,3 C 8,3 C 94 % 1018,5 hPa 0,0 l/m 0 min 0 min 0 W/m 3,2 km/h (1 Bft) 97,87 %
10.10.2020 04:18 9,4 C 8,3 C 8,3 C 94 % 1018,4 hPa 0,0 l/m 0 min 0 min 0 W/m 6,4 km/h (2 Bft) 95,74 %
10.10.2020 04:20 9,4 C 8,3 C 8,3 C 94 % 1018,5 hPa 0,0 l/m 0 min 0 min 0 W/m 6,4 km/h (2 Bft) 97,83 %
10.10.2020 04:22 9,4 C 8,3 C 8,3 C 94 % 1018,5 hPa 0,0 l/m 0 min 0 min 0 W/m 6,4 km/h (2 Bft) 93,62 %
10.10.2020 04:24 9,4 C 8,3 C 8,3 C 94 % 1018,5 hPa 0,0 l/m 0 min 0 min 0 W/m 0,0 km/h (0 Bft) 97,87 %
10.10.2020 04:26 9,4 C 7,8 C 7,8 C 94 % 1018,5 hPa 0,0 l/m 0 min 0 min 0 W/m 0,0 km/h (0 Bft) 93,62 %
10.10.2020 04:28 9,3 C 7,8 C 7,8 C 94 % 1018,5 hPa 0,0 l/m 0 min 0 min 0 W/m 6,4 km/h (2 Bft) 95,83 %
10.10.2020 04:30 9,3 C 7,8 C 7,8 C 94 % 1018,5 hPa 0,0 l/m 0 min 0 min 0 W/m 0,0 km/h (0 Bft) 95,74 %
10.10.2020 04:32 9,3 C 7,8 C 7,8 C 94 % 1018,5 hPa 0,0 l/m 0 min 0 min 0 W/m 3,2 km/h (1 Bft) 95,83 %
10.10.2020 04:34 9,3 C 7,8 C 7,8 C 94 % 1018,5 hPa 0,0 l/m 0 min 0 min 0 W/m 6,4 km/h (2 Bft) 95,74 %
10.10.2020 04:36 9,2 C 7,8 C 7,8 C 94 % 1018,5 hPa 0,0 l/m 0 min 0 min 0 W/m 3,2 km/h (1 Bft) 93,75 %
10.10.2020 04:38 9,2 C 7,8 C 7,8 C 94 % 1018,5 hPa 0,0 l/m 0 min 0 min 0 W/m 6,4 km/h (2 Bft) 95,74 %
10.10.2020 04:40 9,2 C 7,8 C 7,8 C 94 % 1018,5 hPa 0,0 l/m 0 min 0 min 0 W/m 3,2 km/h (1 Bft) 95,74 %
10.10.2020 04:42 9,1 C 7,8 C 7,8 C 94 % 1018,5 hPa 0,0 l/m 0 min 0 min 0 W/m 3,2 km/h (1 Bft) 93,48 %
10.10.2020 04:44 9,1 C 7,8 C 7,8 C 94 % 1018,5 hPa 0,0 l/m 0 min 0 min 0 W/m 6,4 km/h (2 Bft) 95,74 %
10.10.2020 04:46 9,1 C 7,8 C 7,8 C 94 % 1018,5 hPa 0,0 l/m 0 min 0 min 0 W/m 3,2 km/h (1 Bft) 97,92 %
10.10.2020 04:48 9,0 C 7,8 C 7,8 C 94 % 1018,5 hPa 0,0 l/m 0 min 0 min 0 W/m 3,2 km/h (1 Bft) 97,87 %
10.10.2020 04:50 9,0 C 7,8 C 7,8 C 94 % 1018,5 hPa 0,0 l/m 0 min 0 min 0 W/m 3,2 km/h (1 Bft) 97,87 %
10.10.2020 04:52 8,9 C 7,8 C 7,8 C 94 % 1018,5 hPa 0,0 l/m 0 min 0 min 0 W/m 6,4 km/h (2 Bft) 97,83 %
10.10.2020 04:54 8,9 C 7,8 C 7,2 C 94 % 1018,5 hPa 0,0 l/m 0 min 0 min 0 W/m 3,2 km/h (1 Bft) 97,87 %
10.10.2020 04:56 8,9 C 7,2 C 7,2 C 94 % 1018,5 hPa 0,0 l/m 0 min 0 min 0 W/m 0,0 km/h (0 Bft) 95,74 %
10.10.2020 04:58 8,9 C 7,2 C 7,2 C 94 % 1018,5 hPa 0,0 l/m 0 min 0 min 0 W/m 3,2 km/h (1 Bft) 97,87 %
10.10.2020 05:00 8,8 C 7,2 C 7,2 C 94 % 1018,5 hPa 0,0 l/m 0 min 0 min 0 W/m 3,2 km/h (1 Bft) 95,74 %
10.10.2020 05:02 8,8 C 7,2 C 7,2 C 94 % 1018,5 hPa 0,0 l/m 0 min 0 min 0 W/m 3,2 km/h (1 Bft) 93,62 %
10.10.2020 05:04 8,8 C 7,2 C 7,2 C 94 % 1018,6 hPa 0,0 l/m 0 min 0 min 0 W/m 6,4 km/h (2 Bft) 97,83 %
10.10.2020 05:06 8,8 C 7,2 C 7,2 C 94 % 1018,5 hPa 0,0 l/m 0 min 0 min 0 W/m 6,4 km/h (2 Bft) 97,87 %
10.10.2020 05:08 8,7 C 7,2 C 7,2 C 94 % 1018,5 hPa 0,0 l/m 0 min 0 min 0 W/m 3,2 km/h (1 Bft) 97,87 %
10.10.2020 05:10 8,7 C 7,2 C 7,2 C 94 % 1018,5 hPa 0,0 l/m 0 min 0 min 0 W/m 6,4 km/h (2 Bft) 97,56 %
10.10.2020 05:12 8,7 C 7,2 C 7,2 C 94 % 1018,5 hPa 0,0 l/m 0 min 0 min 0 W/m 6,4 km/h (2 Bft) 97,87 %
10.10.2020 05:14 8,6 C 7,2 C 7,2 C 94 % 1018,5 hPa 0,0 l/m 0 min 0 min 0 W/m 3,2 km/h (1 Bft) 95,74 %
10.10.2020 05:16 8,6 C 7,2 C 7,2 C 94 % 1018,6 hPa 0,0 l/m 0 min 0 min 0 W/m 12,9 km/h (3 Bft) 97,87 %
10.10.2020 05:18 8,6 C 7,2 C 7,2 C 94 % 1018,6 hPa 0,0 l/m 0 min 0 min 0 W/m 3,2 km/h (1 Bft) 97,87 %
10.10.2020 05:20 8,6 C 7,2 C 7,2 C 94 % 1018,6 hPa 0,0 l/m 0 min 0 min 0 W/m 6,4 km/h (2 Bft) 100,00 %
10.10.2020 05:22 8,6 C 7,2 C 7,2 C 94 % 1018,6 hPa 0,0 l/m 0 min 0 min 0 W/m 6,4 km/h (2 Bft) 100,00 %
10.10.2020 05:24 8,5 C 7,2 C 7,2 C 94 % 1018,7 hPa 0,0 l/m 0 min 0 min 0 W/m 3,2 km/h (1 Bft) 100,00 %
10.10.2020 05:26 8,5 C 7,2 C 7,2 C 94 % 1018,7 hPa 0,0 l/m 0 min 0 min 0 W/m 3,2 km/h (1 Bft) 97,87 %
10.10.2020 05:28 8,4 C 7,2 C 7,2 C 94 % 1018,7 hPa 0,0 l/m 0 min 0 min 0 W/m 3,2 km/h (1 Bft) 100,00 %
10.10.2020 05:30 8,4 C 7,2 C 7,2 C 94 % 1018,7 hPa 0,0 l/m 0 min 0 min 0 W/m 6,4 km/h (2 Bft) 97,83 %
10.10.2020 05:32 8,4 C 7,2 C 7,2 C 95 % 1018,7 hPa 0,0 l/m 0 min 0 min 0 W/m 3,2 km/h (1 Bft) 100,00 %
10.10.2020 05:34 8,4 C 7,2 C 7,2 C 95 % 1018,7 hPa 0,0 l/m 0 min 0 min 0 W/m 9,7 km/h (2 Bft) 100,00 %
10.10.2020 05:36 8,4 C 7,2 C 7,2 C 95 % 1018,7 hPa 0,0 l/m 0 min 0 min 0 W/m 3,2 km/h (1 Bft) 100,00 %
10.10.2020 05:38 8,4 C 7,2 C 7,2 C 95 % 1018,7 hPa 0,0 l/m 0 min 0 min 0 W/m 6,4 km/h (2 Bft) 47,37 %
10.10.2020 05:40 8,4 C 7,2 C 7,2 C 95 % 1018,7 hPa 0,0 l/m 0 min 0 min 0 W/m 6,4 km/h (2 Bft) 100,00 %
10.10.2020 05:42 8,3 C 7,2 C 7,2 C 95 % 1018,8 hPa 0,0 l/m 0 min 0 min 0 W/m 3,2 km/h (1 Bft) 100,00 %
10.10.2020 05:44 8,3 C 7,2 C 7,2 C 95 % 1018,8 hPa 0,0 l/m 0 min 0 min 0 W/m 0,0 km/h (0 Bft) 100,00 %
10.10.2020 05:46 8,3 C 7,2 C 7,2 C 95 % 1018,8 hPa 0,0 l/m 0 min 0 min 0 W/m 0,0 km/h (0 Bft) 100,00 %
10.10.2020 05:48 8,3 C 7,2 C 7,2 C 95 % 1018,9 hPa 0,0 l/m 0 min 0 min 0 W/m 0,0 km/h (0 Bft) 100,00 %
10.10.2020 05:50 8,3 C 7,2 C 7,2 C 95 % 1018,9 hPa 0,0 l/m 0 min 0 min 0 W/m 3,2 km/h (1 Bft) 97,87 %
10.10.2020 05:52 8,3 C 7,2 C 7,2 C 95 % 1018,9 hPa 0,0 l/m 0 min 0 min 0 W/m 3,2 km/h (1 Bft) 100,00 %
10.10.2020 05:54 8,3 C 7,2 C 7,2 C 95 % 1019,0 hPa 0,0 l/m 0 min 0 min 0 W/m 3,2 km/h (1 Bft) 100,00 %
10.10.2020 05:56 8,3 C 7,2 C 7,2 C 95 % 1018,9 hPa 0,0 l/m 0 min 0 min 0 W/m 3,2 km/h (1 Bft) 100,00 %
10.10.2020 05:58 8,2 C 7,2 C 7,2 C 95 % 1019,0 hPa 0,0 l/m 0 min 0 min 0 W/m 3,2 km/h (1 Bft) 97,87 %
10.10.2020 06:00 8,2 C 7,2 C 7,2 C 95 % 1019,0 hPa 0,0 l/m 0 min 0 min 0 W/m 9,7 km/h (2 Bft) 100,00 %
10.10.2020 06:02 8,2 C 7,2 C 7,2 C 95 % 1019,0 hPa 0,0 l/m 0 min 0 min 0 W/m 6,4 km/h (2 Bft) 95,83 %
10.10.2020 06:04 8,2 C 7,2 C 7,2 C 95 % 1019,0 hPa 0,0 l/m 0 min 0 min 0 W/m 9,7 km/h (2 Bft) 100,00 %
10.10.2020 06:08 8,2 C 7,2 C 7,2 C 95 % 1019,0 hPa 0,0 l/m 0 min 0 min 0 W/m 9,7 km/h (2 Bft) 100,00 %
10.10.2020 06:10 8,2 C 7,2 C 7,2 C 95 % 1019,0 hPa 0,0 l/m 0 min 0 min 0 W/m 6,4 km/h (2 Bft) 97,87 %
10.10.2020 06:12 8,2 C 7,2 C 7,2 C 95 % 1019,1 hPa 0,0 l/m 0 min 0 min 0 W/m 6,4 km/h (2 Bft) 97,83 %
10.10.2020 06:14 8,2 C 7,2 C 7,2 C 95 % 1019,0 hPa 0,0 l/m 0 min 0 min 0 W/m 3,2 km/h (1 Bft) 97,87 %
10.10.2020 06:16 8,2 C 7,2 C 7,2 C 95 % 1019,0 hPa 0,0 l/m 0 min 0 min 0 W/m 6,4 km/h (2 Bft) 95,74 %
10.10.2020 06:18 8,2 C 7,2 C 7,2 C 95 % 1019,0 hPa 0,0 l/m 0 min 0 min 0 W/m 6,4 km/h (2 Bft) 95,74 %
10.10.2020 06:20 8,2 C 7,2 C 7,2 C 95 % 1019,0 hPa 0,0 l/m 0 min 0 min 0 W/m 6,4 km/h (2 Bft) 97,87 %
10.10.2020 06:22 8,1 C 7,2 C 7,2 C 95 % 1019,0 hPa 0,0 l/m 0 min 0 min 0 W/m 6,4 km/h (2 Bft) 97,56 %
10.10.2020 06:24 8,1 C 7,2 C 7,2 C 95 % 1019,0 hPa 0,0 l/m 0 min 0 min 0 W/m 3,2 km/h (1 Bft) 97,87 %
10.10.2020 06:26 8,1 C 7,2 C 7,2 C 96 % 1019,1 hPa 0,0 l/m 0 min 0 min 0 W/m 6,4 km/h (2 Bft) 93,75 %
10.10.2020 06:28 8,1 C 7,2 C 7,2 C 96 % 1019,1 hPa 0,0 l/m 0 min 0 min 0 W/m 6,4 km/h (2 Bft) 93,48 %
10.10.2020 06:30 8,1 C 7,2 C 7,2 C 96 % 1019,1 hPa 0,0 l/m 0 min 0 min 0 W/m 3,2 km/h (1 Bft) 95,83 %
10.10.2020 06:32 8,1 C 7,2 C 6,7 C 96 % 1019,1 hPa 0,0 l/m 0 min 0 min 0 W/m 6,4 km/h (2 Bft) 97,87 %
10.10.2020 06:34 8,1 C 6,7 C 6,7 C 96 % 1019,1 hPa 0,0 l/m 0 min 0 min 0 W/m 6,4 km/h (2 Bft) 95,83 %
10.10.2020 06:36 8,1 C 6,7 C 6,7 C 96 % 1019,1 hPa 0,0 l/m 0 min 0 min 0 W/m 9,7 km/h (2 Bft) 95,83 %
10.10.2020 06:38 8,0 C 6,7 C 6,7 C 96 % 1019,1 hPa 0,0 l/m 0 min 0 min 0 W/m 6,4 km/h (2 Bft) 95,74 %
10.10.2020 06:40 8,0 C 6,7 C 6,7 C 96 % 1019,1 hPa 0,0 l/m 0 min 0 min 0 W/m 3,2 km/h (1 Bft) 95,74 %
10.10.2020 06:42 8,0 C 6,7 C 6,7 C 96 % 1019,1 hPa 0,0 l/m 0 min 0 min 0 W/m 3,2 km/h (1 Bft) 95,83 %
10.10.2020 06:44 8,0 C 6,7 C 6,7 C 96 % 1019,1 hPa 0,0 l/m 0 min 0 min 0 W/m 3,2 km/h (1 Bft) 95,74 %
10.10.2020 06:46 7,9 C 6,7 C 6,7 C 96 % 1019,1 hPa 0,0 l/m 0 min 0 min 0 W/m 6,4 km/h (2 Bft) 95,74 %
10.10.2020 06:48 7,9 C 6,7 C 6,7 C 96 % 1019,1 hPa 0,0 l/m 0 min 0 min 0 W/m 12,9 km/h (3 Bft) 95,65 %
10.10.2020 06:50 7,9 C 6,7 C 6,7 C 96 % 1019,1 hPa 0,0 l/m 0 min 0 min 0 W/m 9,7 km/h (2 Bft) 93,62 %
10.10.2020 06:52 7,9 C 6,7 C 6,7 C 96 % 1019,1 hPa 0,0 l/m 0 min 0 min 0 W/m 3,2 km/h (1 Bft) 95,74 %
10.10.2020 06:54 7,9 C 6,7 C 6,7 C 96 % 1019,2 hPa 0,0 l/m 0 min 0 min 0 W/m 3,2 km/h (1 Bft) 95,74 %
10.10.2020 06:56 7,8 C 6,7 C 6,7 C 96 % 1019,2 hPa 0,0 l/m 0 min 0 min 0 W/m 0,0 km/h (0 Bft) 95,74 %
10.10.2020 06:58 7,8 C 6,7 C 6,7 C 96 % 1019,2 hPa 0,0 l/m 0 min 0 min 0 W/m 6,4 km/h (2 Bft) 95,35 %
10.10.2020 07:00 7,8 C 6,7 C 6,7 C 96 % 1019,2 hPa 0,0 l/m 0 min 0 min 0 W/m 3,2 km/h (1 Bft) 95,74 %
10.10.2020 07:02 7,8 C 6,7 C 6,7 C 96 % 1019,2 hPa 0,0 l/m 0 min 0 min 0 W/m 6,4 km/h (2 Bft) 95,65 %
10.10.2020 07:04 7,8 C 6,7 C 6,7 C 96 % 1019,2 hPa 0,0 l/m 0 min 0 min 0 W/m 6,4 km/h (2 Bft) 93,62 %
10.10.2020 07:06 7,8 C 6,7 C 6,7 C 96 % 1019,3 hPa 0,0 l/m 0 min 0 min 0 W/m 6,4 km/h (2 Bft) 95,74 %
10.10.2020 07:08 7,7 C 6,7 C 6,7 C 96 % 1019,2 hPa 0,0 l/m 0 min 0 min 0 W/m 3,2 km/h (1 Bft) 95,74 %
10.10.2020 07:10 7,7 C 6,7 C 6,7 C 96 % 1019,3 hPa 0,0 l/m 0 min 0 min 0 W/m 0,0 km/h (0 Bft) 97,92 %
10.10.2020 07:12 7,7 C 6,7 C 6,7 C 96 % 1019,3 hPa 0,0 l/m 0 min 0 min 0 W/m 6,4 km/h (2 Bft) 100,00 %
10.10.2020 07:14 7,7 C 6,7 C 6,7 C 96 % 1019,3 hPa 0,0 l/m 0 min 0 min 0 W/m 3,2 km/h (1 Bft) 97,83 %
10.10.2020 07:16 7,6 C 6,7 C 6,7 C 96 % 1019,3 hPa 0,0 l/m 0 min 0 min 0 W/m 6,4 km/h (2 Bft) 95,74 %
10.10.2020 07:18 7,6 C 6,7 C 6,7 C 96 % 1019,4 hPa 0,0 l/m 0 min 0 min 0 W/m 6,4 km/h (2 Bft) 97,87 %
10.10.2020 07:20 7,6 C 6,7 C 6,7 C 96 % 1019,3 hPa 0,0 l/m 0 min 0 min 0 W/m 0,0 km/h (0 Bft) 97,87 %
10.10.2020 07:22 7,6 C 6,7 C 6,7 C 96 % 1019,3 hPa 0,0 l/m 0 min 0 min 0 W/m 6,4 km/h (2 Bft) 97,14 %
10.10.2020 07:24 7,6 C 6,7 C 6,7 C 96 % 1019,3 hPa 0,0 l/m 0 min 0 min 0 W/m 3,2 km/h (1 Bft) 95,74 %
10.10.2020 07:26 7,6 C 6,1 C 6,7 C 96 % 1019,3 hPa 0,0 l/m 0 min 0 min 0 W/m 3,2 km/h (1 Bft) 97,87 %
10.10.2020 07:28 7,6 C 6,1 C 6,7 C 96 % 1019,3 hPa 0,0 l/m 0 min 0 min 0 W/m 3,2 km/h (1 Bft) 100,00 %
10.10.2020 07:30 7,5 C 6,7 C 6,7 C 96 % 1019,4 hPa 0,0 l/m 0 min 0 min 0 W/m 6,4 km/h (2 Bft) 97,83 %
10.10.2020 07:32 7,5 C 6,1 C 6,7 C 96 % 1019,4 hPa 0,0 l/m 0 min 0 min 0 W/m 3,2 km/h (1 Bft) 95,92 %
10.10.2020 07:34 7,4 C 6,7 C 6,7 C 96 % 1019,5 hPa 0,0 l/m 0 min 0 min 0 W/m 6,4 km/h (2 Bft) 93,75 %
10.10.2020 07:36 7,4 C 6,7 C 6,7 C 96 % 1019,5 hPa 0,0 l/m 0 min 0 min 0 W/m 3,2 km/h (1 Bft) 95,83 %
10.10.2020 07:38 7,4 C 6,1 C 6,7 C 96 % 1019,5 hPa 0,0 l/m 0 min 0 min 0 W/m 3,2 km/h (1 Bft) 95,74 %
10.10.2020 07:40 7,4 C 6,7 C 6,7 C 96 % 1019,5 hPa 0,0 l/m 0 min 0 min 0 W/m 3,2 km/h (1 Bft) 93,48 %
10.10.2020 07:42 7,4 C 6,7 C 6,7 C 96 % 1019,5 hPa 0,0 l/m 0 min 0 min 0 W/m 3,2 km/h (1 Bft) 95,74 %
10.10.2020 07:44 7,4 C 6,7 C 6,7 C 96 % 1019,5 hPa 0,0 l/m 0 min 0 min 0 W/m 6,4 km/h (2 Bft) 95,74 %
10.10.2020 07:46 7,4 C 6,1 C 6,7 C 96 % 1019,5 hPa 0,0 l/m 0 min 0 min 0 W/m 0,0 km/h (0 Bft) 93,62 %
10.10.2020 07:48 7,4 C 6,1 C 6,7 C 96 % 1019,5 hPa 0,0 l/m 0 min 0 min 0 W/m 6,4 km/h (2 Bft) 95,74 %
10.10.2020 07:50 7,4 C 6,1 C 6,7 C 96 % 1019,5 hPa 0,0 l/m 0 min 0 min 0 W/m 16,1 km/h (3 Bft) 95,65 %
10.10.2020 07:52 7,3 C 6,1 C 6,7 C 96 % 1019,5 hPa 0,0 l/m 0 min 0 min 0 W/m 6,4 km/h (2 Bft) 95,83 %
10.10.2020 07:54 7,3 C 6,1 C 6,7 C 96 % 1019,5 hPa 0,0 l/m 0 min 0 min 0 W/m 3,2 km/h (1 Bft) 95,74 %
10.10.2020 07:56 7,3 C 6,1 C 6,7 C 96 % 1019,5 hPa 0,0 l/m 0 min 0 min 0 W/m 3,2 km/h (1 Bft) 95,83 %
10.10.2020 07:58 7,3 C 6,1 C 6,7 C 96 % 1019,5 hPa 0,0 l/m 0 min 0 min 1 W/m 6,4 km/h (2 Bft) 95,74 %
10.10.2020 08:00 7,3 C 6,7 C 6,1 C 96 % 1019,6 hPa 0,0 l/m 0 min 0 min 5 W/m 9,7 km/h (2 Bft) 97,83 %
10.10.2020 08:02 7,3 C 6,7 C 6,7 C 96 % 1019,5 hPa 0,0 l/m 0 min 0 min 5 W/m 9,7 km/h (2 Bft) 95,74 %
10.10.2020 08:04 7,3 C 6,7 C 6,7 C 96 % 1019,5 hPa 0,0 l/m 0 min 0 min 6 W/m 9,7 km/h (2 Bft) 97,87 %
10.10.2020 08:06 7,3 C 6,1 C 6,7 C 96 % 1019,5 hPa 0,0 l/m 0 min 0 min 7 W/m 6,4 km/h (2 Bft) 97,87 %
10.10.2020 08:08 7,3 C 6,1 C 6,7 C 96 % 1019,5 hPa 0,0 l/m 0 min 0 min 7 W/m 3,2 km/h (1 Bft) 97,87 %
10.10.2020 08:10 7,3 C 6,1 C 6,1 C 96 % 1019,6 hPa 0,0 l/m 0 min 0 min 8 W/m 3,2 km/h (1 Bft) 97,87 %
10.10.2020 08:12 7,2 C 6,1 C 6,1 C 96 % 1019,6 hPa 0,0 l/m 0 min 0 min 9 W/m 6,4 km/h (2 Bft) 95,74 %
10.10.2020 08:14 7,2 C 6,7 C 6,1 C 96 % 1019,6 hPa 0,0 l/m 0 min 0 min 10 W/m 6,4 km/h (2 Bft) 95,65 %
10.10.2020 08:16 7,2 C 6,7 C 6,1 C 96 % 1019,6 hPa 0,0 l/m 0 min 0 min 11 W/m 6,4 km/h (2 Bft) 97,87 %
10.10.2020 08:18 7,2 C 6,1 C 6,1 C 96 % 1019,6 hPa 0,0 l/m 0 min 0 min 12 W/m 6,4 km/h (2 Bft) 97,87 %
10.10.2020 08:20 7,2 C 6,7 C 6,1 C 96 % 1019,7 hPa 0,0 l/m 0 min 0 min 12 W/m 9,7 km/h (2 Bft) 95,74 %
10.10.2020 08:22 7,2 C 6,7 C 6,1 C 96 % 1019,7 hPa 0,0 l/m 0 min 0 min 14 W/m 6,4 km/h (2 Bft) 97,83 %
10.10.2020 08:24 7,2 C 6,7 C 6,1 C 96 % 1019,8 hPa 0,0 l/m 0 min 0 min 14 W/m 3,2 km/h (1 Bft) 97,87 %
10.10.2020 08:26 7,2 C 6,7 C 6,1 C 97 % 1019,8 hPa 0,0 l/m 0 min 0 min 16 W/m 6,4 km/h (2 Bft) 97,87 %
10.10.2020 08:28 7,2 C 6,7 C 6,1 C 97 % 1019,8 hPa 0,0 l/m 0 min 0 min 16 W/m 9,7 km/h (2 Bft) 100,00 %
10.10.2020 08:30 7,2 C 6,7 C 6,1 C 97 % 1019,9 hPa 0,0 l/m 0 min 0 min 18 W/m 9,7 km/h (2 Bft) 100,00 %
10.10.2020 08:32 7,2 C 6,7 C 6,7 C 97 % 1019,9 hPa 0,0 l/m 0 min 0 min 18 W/m 3,2 km/h (1 Bft) 100,00 %
10.10.2020 08:34 7,2 C 6,7 C 6,7 C 97 % 1019,9 hPa 0,0 l/m 0 min 0 min 19 W/m 3,2 km/h (1 Bft) 97,83 %
10.10.2020 08:36 7,2 C 6,7 C 6,7 C 97 % 1019,9 hPa 0,0 l/m 0 min 0 min 19 W/m 9,7 km/h (2 Bft) 95,24 %
10.10.2020 08:38 7,2 C 6,7 C 6,7 C 97 % 1019,9 hPa 0,0 l/m 0 min 0 min 19 W/m 16,1 km/h (3 Bft) 97,83 %
10.10.2020 08:40 7,2 C 6,7 C 6,7 C 97 % 1019,9 hPa 0,0 l/m 0 min 0 min 19 W/m 6,4 km/h (2 Bft) 100,00 %
10.10.2020 08:42 7,2 C 6,7 C 6,7 C 97 % 1019,9 hPa 0,0 l/m 0 min 0 min 21 W/m 3,2 km/h (1 Bft) 100,00 %
10.10.2020 08:44 7,2 C 6,7 C 6,7 C 97 % 1019,9 hPa 0,0 l/m 0 min 0 min 21 W/m 6,4 km/h (2 Bft) 97,87 %
10.10.2020 08:46 7,2 C 6,7 C 6,7 C 97 % 1019,9 hPa 0,0 l/m 0 min 0 min 21 W/m 6,4 km/h (2 Bft) 97,92 %
10.10.2020 08:48 7,2 C 6,7 C 6,7 C 97 % 1020,0 hPa 0,0 l/m 0 min 0 min 21 W/m 12,9 km/h (3 Bft) 97,92 %
10.10.2020 08:50 7,2 C 6,7 C 6,7 C 97 % 1019,9 hPa 0,0 l/m 0 min 0 min 23 W/m 6,4 km/h (2 Bft) 97,83 %
10.10.2020 08:52 7,3 C 7,2 C 6,7 C 97 % 1020,0 hPa 0,0 l/m 0 min 0 min 23 W/m 12,9 km/h (3 Bft) 97,87 %
10.10.2020 08:54 7,3 C 7,2 C 6,7 C 97 % 1020,0 hPa 0,0 l/m 0 min 0 min 23 W/m 12,9 km/h (3 Bft) 97,92 %
10.10.2020 08:56 7,3 C 7,2 C 6,7 C 97 % 1020,0 hPa 0,0 l/m 0 min 0 min 24 W/m 16,1 km/h (3 Bft) 97,92 %
10.10.2020 08:58 7,3 C 7,2 C 6,7 C 97 % 1020,1 hPa 0,0 l/m 0 min 0 min 25 W/m 6,4 km/h (2 Bft) 97,83 %
10.10.2020 09:00 7,3 C 7,2 C 6,7 C 97 % 1020,1 hPa 0,0 l/m 0 min 0 min 25 W/m 9,7 km/h (2 Bft) 97,87 %
10.10.2020 09:02 7,3 C 7,2 C 6,7 C 97 % 1020,1 hPa 0,0 l/m 0 min 0 min 26 W/m 6,4 km/h (2 Bft) 93,62 %
10.10.2020 09:04 7,4 C 7,2 C 6,7 C 97 % 1020,1 hPa 0,0 l/m 0 min 0 min 26 W/m 6,4 km/h (2 Bft) 97,87 %
10.10.2020 09:06 7,4 C 7,2 C 6,7 C 97 % 1020,1 hPa 0,0 l/m 0 min 0 min 27 W/m 6,4 km/h (2 Bft) 97,87 %
10.10.2020 09:08 7,4 C 7,2 C 6,7 C 97 % 1020,1 hPa 0,0 l/m 0 min 0 min 28 W/m 9,7 km/h (2 Bft) 97,87 %
10.10.2020 09:10 7,4 C 7,2 C 6,7 C 97 % 1020,1 hPa 0,0 l/m 0 min 0 min 28 W/m 6,4 km/h (2 Bft) 93,48 %
10.10.2020 09:12 7,4 C 7,2 C 7,2 C 97 % 1020,2 hPa 0,0 l/m 0 min 0 min 29 W/m 3,2 km/h (1 Bft) 95,74 %
10.10.2020 09:14 7,5 C 7,8 C 7,2 C 97 % 1020,2 hPa 0,0 l/m 0 min 0 min 30 W/m 6,4 km/h (2 Bft) 97,87 %
10.10.2020 09:16 7,5 C 7,8 C 7,2 C 97 % 1020,3 hPa 0,0 l/m 0 min 0 min 31 W/m 6,4 km/h (2 Bft) 97,56 %
10.10.2020 09:18 7,6 C 7,8 C 7,2 C 97 % 1020,2 hPa 0,0 l/m 0 min 0 min 32 W/m 6,4 km/h (2 Bft) 97,92 %
10.10.2020 09:20 7,6 C 7,8 C 7,2 C 97 % 1020,2 hPa 0,0 l/m 0 min 0 min 32 W/m 16,1 km/h (3 Bft) 97,92 %
10.10.2020 09:22 7,6 C 7,8 C 7,2 C 97 % 1020,3 hPa 0,0 l/m 0 min 0 min 33 W/m 16,1 km/h (3 Bft) 97,92 %
10.10.2020 09:24 7,7 C 7,8 C 7,2 C 97 % 1020,3 hPa 0,0 l/m 0 min 0 min 34 W/m 12,9 km/h (3 Bft) 97,83 %
10.10.2020 09:26 7,7 C 7,8 C 7,2 C 97 % 1020,3 hPa 0,0 l/m 0 min 0 min 35 W/m 16,1 km/h (3 Bft) 97,87 %
10.10.2020 09:28 7,7 C 7,8 C 7,2 C 97 % 1020,3 hPa 0,0 l/m 0 min 0 min 37 W/m 6,4 km/h (2 Bft) 95,83 %
10.10.2020 09:30 7,8 C 7,8 C 7,2 C 97 % 1020,5 hPa 0,0 l/m 0 min 0 min 38 W/m 19,3 km/h (3 Bft) 100,00 %
10.10.2020 09:32 7,8 C 8,3 C 7,2 C 97 % 1020,4 hPa 0,0 l/m 0 min 0 min 40 W/m 16,1 km/h (3 Bft) 100,00 %
10.10.2020 09:34 7,8 C 8,3 C 7,2 C 97 % 1020,4 hPa 0,0 l/m 0 min 0 min 41 W/m 0,0 km/h (0 Bft) 100,00 %
10.10.2020 09:36 7,9 C 8,3 C 7,8 C 97 % 1020,4 hPa 0,0 l/m 0 min 0 min 42 W/m 12,9 km/h (3 Bft) 95,74 %
10.10.2020 09:38 7,9 C 8,3 C 7,8 C 97 % 1020,5 hPa 0,0 l/m 0 min 0 min 45 W/m 6,4 km/h (2 Bft) 97,87 %
10.10.2020 09:40 8,0 C 8,3 C 7,8 C 97 % 1020,4 hPa 0,0 l/m 0 min 0 min 46 W/m 19,3 km/h (3 Bft) 97,87 %
10.10.2020 09:42 8,0 C 8,3 C 7,8 C 97 % 1020,5 hPa 0,0 l/m 0 min 0 min 47 W/m 6,4 km/h (2 Bft) 100,00 %
10.10.2020 09:44 8,1 C 8,3 C 7,8 C 97 % 1020,5 hPa 0,0 l/m 0 min 0 min 48 W/m 12,9 km/h (3 Bft) 100,00 %
10.10.2020 09:46 8,1 C 8,3 C 7,8 C 97 % 1020,5 hPa 0,0 l/m 0 min 0 min 49 W/m 16,1 km/h (3 Bft) 100,00 %
10.10.2020 09:48 8,1 C 8,3 C 7,8 C 97 % 1020,5 hPa 0,0 l/m 0 min 0 min 51 W/m 16,1 km/h (3 Bft) 100,00 %
10.10.2020 09:50 8,2 C 8,9 C 7,8 C 97 % 1020,5 hPa 0,0 l/m 0 min 0 min 55 W/m 9,7 km/h (2 Bft) 100,00 %
10.10.2020 09:52 8,2 C 8,9 C 7,8 C 97 % 1020,5 hPa 0,0 l/m 2 min 0 min 149 W/m 12,9 km/h (3 Bft) 100,00 %
10.10.2020 09:54 8,3 C 9,4 C 7,8 C 97 % 1020,6 hPa 0,0 l/m 2 min 0 min 263 W/m 12,9 km/h (3 Bft) 100,00 %
10.10.2020 09:56 8,3 C 11,7 C 7,8 C 96 % 1020,6 hPa 0,0 l/m 2 min 0 min 274 W/m 12,9 km/h (3 Bft) 97,83 %
10.10.2020 09:58 8,3 C 12,8 C 7,8 C 96 % 1020,6 hPa 0,0 l/m 2 min 0 min 280 W/m 6,4 km/h (2 Bft) 97,67 %
10.10.2020 10:00 8,4 C 13,3 C 7,8 C 96 % 1020,7 hPa 0,0 l/m 2 min 0 min 286 W/m 12,9 km/h (3 Bft) 100,00 %
10.10.2020 10:02 8,5 C 13,3 C 8,3 C 96 % 1020,7 hPa 0,0 l/m 2 min 0 min 297 W/m 16,1 km/h (3 Bft) 100,00 %
10.10.2020 10:04 8,6 C 13,3 C 8,3 C 96 % 1020,6 hPa 0,0 l/m 2 min 0 min 299 W/m 12,9 km/h (3 Bft) 100,00 %
10.10.2020 10:06 8,7 C 13,3 C 8,3 C 96 % 1020,7 hPa 0,0 l/m 2 min 0 min 296 W/m 16,1 km/h (3 Bft) 97,87 %
10.10.2020 10:08 8,8 C 13,3 C 8,3 C 96 % 1020,7 hPa 0,0 l/m 2 min 0 min 301 W/m 16,1 km/h (3 Bft) 100,00 %
10.10.2020 10:10 8,8 C 13,9 C 8,3 C 96 % 1020,7 hPa 0,0 l/m 2 min 0 min 310 W/m 12,9 km/h (3 Bft) 100,00 %
10.10.2020 10:12 8,9 C 14,4 C 8,9 C 96 % 1020,7 hPa 0,0 l/m 2 min 0 min 316 W/m 12,9 km/h (3 Bft) 97,87 %
10.10.2020 10:14 9,1 C 14,4 C 8,9 C 96 % 1020,7 hPa 0,0 l/m 2 min 0 min 319 W/m 16,1 km/h (3 Bft) 100,00 %
10.10.2020 10:16 9,2 C 15,0 C 8,9 C 95 % 1020,7 hPa 0,0 l/m 2 min 0 min 323 W/m 12,9 km/h (3 Bft) 100,00 %
10.10.2020 10:18 9,3 C 15,0 C 8,9 C 95 % 1020,7 hPa 0,0 l/m 2 min 0 min 328 W/m 16,1 km/h (3 Bft) 100,00 %
10.10.2020 10:20 9,4 C 14,4 C 8,9 C 95 % 1020,7 hPa 0,0 l/m 2 min 0 min 335 W/m 16,1 km/h (3 Bft) 97,83 %
10.10.2020 10:22 9,5 C 15,0 C 8,9 C 95 % 1020,8 hPa 0,0 l/m 2 min 0 min 339 W/m 12,9 km/h (3 Bft) 97,87 %
10.10.2020 10:24 9,6 C 15,0 C 8,9 C 94 % 1020,7 hPa 0,0 l/m 2 min 0 min 346 W/m 12,9 km/h (3 Bft) 97,87 %
10.10.2020 10:26 9,8 C 15,6 C 8,9 C 94 % 1020,7 hPa 0,0 l/m 2 min 0 min 351 W/m 19,3 km/h (3 Bft) 97,56 %
10.10.2020 10:28 9,9 C 15,6 C 9,4 C 93 % 1020,8 hPa 0,0 l/m 2 min 0 min 358 W/m 12,9 km/h (3 Bft) 97,92 %
10.10.2020 10:30 10,0 C 15,0 C 9,4 C 93 % 1020,8 hPa 0,0 l/m 2 min 0 min 360 W/m 16,1 km/h (3 Bft) 95,74 %
10.10.2020 10:32 10,1 C 14,4 C 9,4 C 92 % 1020,7 hPa 0,0 l/m 2 min 0 min 366 W/m 19,3 km/h (3 Bft) 95,92 %
10.10.2020 10:34 10,2 C 15,6 C 9,4 C 91 % 1020,7 hPa 0,0 l/m 2 min 0 min 370 W/m 12,9 km/h (3 Bft) 95,65 %
10.10.2020 10:36 10,3 C 15,0 C 9,4 C 90 % 1020,8 hPa 0,0 l/m 2 min 0 min 375 W/m 6,4 km/h (2 Bft) 97,87 %
10.10.2020 10:38 10,4 C 15,6 C 9,4 C 89 % 1020,8 hPa 0,0 l/m 2 min 0 min 381 W/m 16,1 km/h (3 Bft) 95,74 %
10.10.2020 10:40 10,5 C 15,6 C 9,4 C 89 % 1020,8 hPa 0,0 l/m 2 min 0 min 386 W/m 9,7 km/h (2 Bft) 97,87 %
10.10.2020 10:42 10,6 C 15,6 C 9,4 C 88 % 1020,8 hPa 0,0 l/m 2 min 0 min 385 W/m 9,7 km/h (2 Bft) 97,87 %
10.10.2020 10:44 10,7 C 15,0 C 10,0 C 88 % 1020,8 hPa 0,0 l/m 2 min 0 min 391 W/m 12,9 km/h (3 Bft) 97,83 %
10.10.2020 10:46 10,7 C 13,9 C 10,0 C 86 % 1020,8 hPa 0,0 l/m 2 min 0 min 399 W/m 12,9 km/h (3 Bft) 95,74 %
10.10.2020 10:48 10,8 C 13,9 C 10,0 C 86 % 1020,8 hPa 0,0 l/m 2 min 0 min 408 W/m 16,1 km/h (3 Bft) 95,74 %
10.10.2020 10:50 10,8 C 15,0 C 10,0 C 86 % 1020,8 hPa 0,0 l/m 2 min 0 min 418 W/m 19,3 km/h (3 Bft) 95,74 %
10.10.2020 10:52 10,9 C 14,4 C 10,0 C 86 % 1020,8 hPa 0,0 l/m 2 min 0 min 451 W/m 29,0 km/h (5 Bft) 95,74 %
10.10.2020 10:54 11,0 C 15,0 C 10,0 C 86 % 1020,7 hPa 0,0 l/m 2 min 0 min 467 W/m 19,3 km/h (3 Bft) 97,87 %
10.10.2020 10:56 11,1 C 13,9 C 10,0 C 85 % 1020,8 hPa 0,0 l/m 2 min 0 min 423 W/m 12,9 km/h (3 Bft) 97,83 %
10.10.2020 10:58 11,1 C 12,8 C 10,0 C 85 % 1020,8 hPa 0,0 l/m 2 min 0 min 423 W/m 25,7 km/h (4 Bft) 97,87 %
10.10.2020 11:00 11,2 C 13,3 C 10,0 C 84 % 1020,8 hPa 0,0 l/m 2 min 0 min 428 W/m 19,3 km/h (3 Bft) 97,87 %
10.10.2020 11:02 11,2 C 14,4 C 10,0 C 84 % 1020,8 hPa 0,0 l/m 2 min 0 min 432 W/m 12,9 km/h (3 Bft) 95,74 %
10.10.2020 11:04 11,2 C 14,4 C 10,0 C 84 % 1020,8 hPa 0,0 l/m 2 min 0 min 439 W/m 16,1 km/h (3 Bft) 97,87 %
10.10.2020 11:06 11,3 C 13,3 C 10,0 C 84 % 1020,9 hPa 0,0 l/m 2 min 0 min 442 W/m 12,9 km/h (3 Bft) 97,87 %
10.10.2020 11:08 11,3 C 13,3 C 10,0 C 84 % 1020,8 hPa 0,0 l/m 2 min 0 min 454 W/m 16,1 km/h (3 Bft) 97,83 %
10.10.2020 11:10 11,3 C 13,3 C 10,0 C 84 % 1020,8 hPa 0,0 l/m 2 min 0 min 462 W/m 16,1 km/h (3 Bft) 97,87 %
10.10.2020 11:12 11,4 C 13,3 C 10,6 C 84 % 1020,9 hPa 0,0 l/m 2 min 0 min 470 W/m 12,9 km/h (3 Bft) 97,87 %
10.10.2020 11:14 11,6 C 13,9 C 10,6 C 84 % 1020,9 hPa 0,0 l/m 2 min 0 min 476 W/m 12,9 km/h (3 Bft) 97,87 %
10.10.2020 11:16 11,6 C 13,9 C 10,6 C 84 % 1020,9 hPa 0,0 l/m 2 min 0 min 501 W/m 16,1 km/h (3 Bft) 98,00 %
10.10.2020 11:18 11,7 C 15,6 C 10,6 C 84 % 1020,9 hPa 0,0 l/m 2 min 0 min 527 W/m 12,9 km/h (3 Bft) 97,83 %
10.10.2020 11:20 11,8 C 16,7 C 11,1 C 84 % 1020,9 hPa 0,0 l/m 2 min 0 min 520 W/m 12,9 km/h (3 Bft) 100,00 %
10.10.2020 11:22 11,9 C 14,4 C 11,1 C 83 % 1021,0 hPa 0,0 l/m 2 min 0 min 441 W/m 19,3 km/h (3 Bft) 100,00 %
10.10.2020 11:24 11,9 C 14,4 C 11,1 C 83 % 1020,9 hPa 0,0 l/m 0 min 0 min 172 W/m 19,3 km/h (3 Bft) 97,87 %
10.10.2020 11:26 12,0 C 16,7 C 11,1 C 83 % 1020,9 hPa 0,0 l/m 2 min 0 min 371 W/m 12,9 km/h (3 Bft) 100,00 %
10.10.2020 11:28 12,1 C 17,8 C 11,1 C 83 % 1020,9 hPa 0,0 l/m 2 min 0 min 571 W/m 12,9 km/h (3 Bft) 100,00 %
10.10.2020 11:30 12,1 C 17,8 C 11,1 C 83 % 1021,0 hPa 0,0 l/m 2 min 0 min 584 W/m 22,5 km/h (4 Bft) 100,00 %
10.10.2020 11:32 12,2 C 17,8 C 11,1 C 83 % 1021,0 hPa 0,0 l/m 2 min 0 min 277 W/m 12,9 km/h (3 Bft) 100,00 %
10.10.2020 11:34 12,3 C 16,7 C 11,1 C 82 % 1021,0 hPa 0,0 l/m 2 min 0 min 541 W/m 16,1 km/h (3 Bft) 100,00 %
10.10.2020 11:36 12,3 C 16,7 C 11,7 C 82 % 1021,0 hPa 0,0 l/m 0 min 0 min 223 W/m 12,9 km/h (3 Bft) 100,00 %
10.10.2020 11:38 12,4 C 14,4 C 11,1 C 82 % 1021,0 hPa 0,0 l/m 0 min 0 min 196 W/m 16,1 km/h (3 Bft) 100,00 %
10.10.2020 11:40 12,3 C 12,8 C 11,1 C 81 % 1021,0 hPa 0,0 l/m 0 min 0 min 158 W/m 12,9 km/h (3 Bft) 100,00 %
10.10.2020 11:42 12,3 C 12,8 C 11,1 C 80 % 1021,0 hPa 0,0 l/m 0 min 0 min 209 W/m 9,7 km/h (2 Bft) 100,00 %
10.10.2020 11:44 12,3 C 12,8 C 11,1 C 80 % 1021,0 hPa 0,0 l/m 2 min 0 min 298 W/m 16,1 km/h (3 Bft) 100,00 %
10.10.2020 11:46 12,3 C 12,8 C 11,1 C 80 % 1021,0 hPa 0,0 l/m 0 min 0 min 193 W/m 22,5 km/h (4 Bft) 98,04 %
10.10.2020 11:48 12,3 C 12,8 C 11,1 C 79 % 1021,0 hPa 0,0 l/m 0 min 0 min 197 W/m 16,1 km/h (3 Bft) 100,00 %
10.10.2020 11:50 12,2 C 12,8 C 11,1 C 80 % 1021,0 hPa 0,0 l/m 0 min 0 min 232 W/m 12,9 km/h (3 Bft) 100,00 %
10.10.2020 11:52 12,2 C 13,3 C 11,1 C 80 % 1021,0 hPa 0,0 l/m 2 min 0 min 249 W/m 16,1 km/h (3 Bft) 97,92 %
10.10.2020 11:54 12,2 C 14,4 C 11,1 C 80 % 1021,0 hPa 0,0 l/m 2 min 0 min 257 W/m 9,7 km/h (2 Bft) 100,00 %
10.10.2020 11:56 12,2 C 15,0 C 11,1 C 80 % 1021,0 hPa 0,0 l/m 2 min 0 min 272 W/m 29,0 km/h (5 Bft) 100,00 %
10.10.2020 11:58 12,2 C 15,0 C 11,1 C 80 % 1021,0 hPa 0,0 l/m 2 min 0 min 578 W/m 22,5 km/h (4 Bft) 100,00 %
10.10.2020 12:00 12,3 C 14,4 C 11,7 C 79 % 1021,0 hPa 0,0 l/m 2 min 0 min 667 W/m 16,1 km/h (3 Bft) 100,00 %
10.10.2020 12:02 12,3 C 14,4 C 11,1 C 80 % 1021,0 hPa 0,0 l/m 2 min 0 min 682 W/m 19,3 km/h (3 Bft) 95,83 %
10.10.2020 12:04 12,3 C 14,4 C 11,1 C 79 % 1021,0 hPa 0,0 l/m 2 min 0 min 682 W/m 19,3 km/h (3 Bft) 100,00 %
10.10.2020 12:08 12,4 C 15,0 C 11,1 C 79 % 1021,0 hPa 0,0 l/m 4 min 0 min 263 W/m 16,1 km/h (3 Bft) 100,00 %
10.10.2020 12:10 12,4 C 15,6 C 11,1 C 79 % 1021,1 hPa 0,0 l/m 2 min 0 min 423 W/m 16,1 km/h (3 Bft) 100,00 %
10.10.2020 12:12 12,4 C 16,7 C 11,1 C 79 % 1021,0 hPa 0,0 l/m 2 min 0 min 596 W/m 12,9 km/h (3 Bft) 100,00 %
10.10.2020 12:14 12,5 C 17,8 C 11,7 C 79 % 1021,0 hPa 0,0 l/m 2 min 0 min 607 W/m 9,7 km/h (2 Bft) 100,00 %
10.10.2020 12:16 12,6 C 17,2 C 11,7 C 79 % 1020,9 hPa 0,0 l/m 2 min 0 min 595 W/m 22,5 km/h (4 Bft) 100,00 %
10.10.2020 12:18 12,6 C 15,6 C 11,7 C 78 % 1021,0 hPa 0,0 l/m 2 min 0 min 394 W/m 16,1 km/h (3 Bft) 97,87 %
10.10.2020 12:20 12,7 C 16,7 C 11,1 C 78 % 1021,0 hPa 0,0 l/m 2 min 0 min 420 W/m 16,1 km/h (3 Bft) 97,92 %
10.10.2020 12:22 12,8 C 17,8 C 11,7 C 78 % 1021,0 hPa 0,0 l/m 2 min 0 min 601 W/m 16,1 km/h (3 Bft) 97,92 %
10.10.2020 12:24 12,8 C 17,2 C 11,1 C 78 % 1020,9 hPa 0,0 l/m 2 min 0 min 620 W/m 19,3 km/h (3 Bft) 97,87 %
10.10.2020 12:26 12,9 C 17,2 C 11,7 C 77 % 1021,0 hPa 0,0 l/m 2 min 0 min 638 W/m 12,9 km/h (3 Bft) 97,87 %
10.10.2020 12:28 12,9 C 17,2 C 11,7 C 77 % 1021,0 hPa 0,0 l/m 2 min 0 min 291 W/m 12,9 km/h (3 Bft) 95,74 %
10.10.2020 12:30 13,0 C 16,1 C 11,7 C 77 % 1021,0 hPa 0,0 l/m 2 min 0 min 658 W/m 19,3 km/h (3 Bft) 95,83 %
10.10.2020 12:32 13,0 C 15,6 C 11,7 C 76 % 1021,0 hPa 0,0 l/m 2 min 0 min 421 W/m 22,5 km/h (4 Bft) 97,30 %
10.10.2020 12:34 13,1 C 15,6 C 11,7 C 77 % 1021,0 hPa 0,0 l/m 2 min 0 min 255 W/m 12,9 km/h (3 Bft) 93,62 %
10.10.2020 12:36 13,1 C 13,9 C 11,7 C 76 % 1021,1 hPa 0,0 l/m 0 min 0 min 203 W/m 12,9 km/h (3 Bft) 98,33 %
10.10.2020 12:38 13,1 C 12,8 C 11,7 C 76 % 1021,2 hPa 0,0 l/m 0 min 0 min 138 W/m 12,9 km/h (3 Bft) 95,74 %
10.10.2020 12:40 13,0 C 12,2 C 11,7 C 76 % 1021,0 hPa 0,0 l/m 0 min 0 min 140 W/m 25,7 km/h (4 Bft) 94,29 %
10.10.2020 12:42 12,9 C 13,3 C 11,7 C 76 % 1021,0 hPa 0,0 l/m 0 min 0 min 226 W/m 16,1 km/h (3 Bft) 95,74 %
10.10.2020 12:44 12,9 C 12,8 C 11,7 C 76 % 1021,0 hPa 0,0 l/m 0 min 0 min 234 W/m 16,1 km/h (3 Bft) 95,74 %
10.10.2020 12:46 12,9 C 12,8 C 11,7 C 76 % 1021,0 hPa 0,0 l/m 0 min 0 min 181 W/m 12,9 km/h (3 Bft) 95,74 %
10.10.2020 12:48 12,8 C 12,2 C 11,7 C 75 % 1021,0 hPa 0,0 l/m 0 min 0 min 141 W/m 25,7 km/h (4 Bft) 95,74 %
10.10.2020 12:50 12,7 C 12,2 C 11,1 C 75 % 1021,0 hPa 0,0 l/m 0 min 0 min 123 W/m 9,7 km/h (2 Bft) 95,74 %
10.10.2020 12:52 12,7 C 12,2 C 11,1 C 77 % 1021,0 hPa 0,0 l/m 0 min 0 min 124 W/m 9,7 km/h (2 Bft) 95,65 %
10.10.2020 12:54 12,6 C 12,2 C 11,1 C 77 % 1021,0 hPa 0,0 l/m 0 min 0 min 153 W/m 6,4 km/h (2 Bft) 95,74 %
10.10.2020 12:56 12,6 C 12,2 C 11,1 C 77 % 1021,0 hPa 0,0 l/m 0 min 0 min 151 W/m 16,1 km/h (3 Bft) 95,74 %
10.10.2020 12:58 12,5 C 12,2 C 11,1 C 77 % 1021,1 hPa 0,0 l/m 0 min 0 min 124 W/m 16,1 km/h (3 Bft) 95,74 %
10.10.2020 13:00 12,4 C 12,2 C 11,1 C 77 % 1021,1 hPa 0,0 l/m 0 min 0 min 145 W/m 22,5 km/h (4 Bft) 95,74 %
10.10.2020 13:02 12,4 C 12,2 C 11,1 C 76 % 1021,1 hPa 0,0 l/m 0 min 0 min 167 W/m 12,9 km/h (3 Bft) 97,67 %
10.10.2020 13:04 12,4 C 12,2 C 11,1 C 77 % 1021,0 hPa 0,0 l/m 0 min 0 min 146 W/m 16,1 km/h (3 Bft) 93,62 %
10.10.2020 13:06 12,3 C 12,2 C 11,1 C 77 % 1021,0 hPa 0,0 l/m 0 min 0 min 135 W/m 19,3 km/h (3 Bft) 97,87 %
10.10.2020 13:08 12,3 C 12,2 C 11,1 C 78 % 1021,1 hPa 0,0 l/m 0 min 0 min 166 W/m 9,7 km/h (2 Bft) 98,31 %
10.10.2020 13:10 12,3 C 12,2 C 11,1 C 78 % 1021,1 hPa 0,0 l/m 0 min 0 min 132 W/m 9,7 km/h (2 Bft) 100,00 %
10.10.2020 13:12 12,3 C 12,8 C 11,1 C 78 % 1021,0 hPa 0,0 l/m 0 min 0 min 96 W/m 12,9 km/h (3 Bft) 95,83 %
10.10.2020 13:14 12,2 C 15,0 C 11,1 C 77 % 1021,0 hPa 0,0 l/m 0 min 0 min 220 W/m 12,9 km/h (3 Bft) 97,87 %
10.10.2020 13:16 12,3 C 16,1 C 11,1 C 77 % 1021,0 hPa 0,0 l/m 2 min 0 min 557 W/m 12,9 km/h (3 Bft) 100,00 %
10.10.2020 13:18 12,3 C 15,0 C 11,1 C 77 % 1021,0 hPa 0,0 l/m 2 min 0 min 659 W/m 19,3 km/h (3 Bft) 100,00 %
10.10.2020 13:20 12,4 C 15,6 C 11,1 C 77 % 1021,0 hPa 0,0 l/m 2 min 0 min 465 W/m 16,1 km/h (3 Bft) 97,87 %
10.10.2020 13:22 12,5 C 16,1 C 11,7 C 77 % 1021,1 hPa 0,0 l/m 2 min 0 min 539 W/m 12,9 km/h (3 Bft) 97,87 %
10.10.2020 13:24 12,6 C 17,8 C 11,7 C 77 % 1021,0 hPa 0,0 l/m 2 min 0 min 602 W/m 9,7 km/h (2 Bft) 97,87 %
10.10.2020 13:26 12,7 C 17,2 C 11,7 C 76 % 1021,0 hPa 0,0 l/m 2 min 0 min 601 W/m 16,1 km/h (3 Bft) 97,87 %
10.10.2020 13:28 12,8 C 18,3 C 11,7 C 77 % 1021,0 hPa 0,0 l/m 2 min 0 min 598 W/m 16,1 km/h (3 Bft) 97,83 %
10.10.2020 13:30 13,0 C 18,9 C 12,2 C 77 % 1021,0 hPa 0,0 l/m 2 min 0 min 587 W/m 16,1 km/h (3 Bft) 95,74 %
10.10.2020 13:32 13,1 C 18,9 C 12,2 C 77 % 1021,0 hPa 0,0 l/m 2 min 0 min 604 W/m 9,7 km/h (2 Bft) 98,00 %
10.10.2020 13:34 13,2 C 19,4 C 12,2 C 76 % 1021,0 hPa 0,0 l/m 2 min 0 min 673 W/m 9,7 km/h (2 Bft) 97,87 %
10.10.2020 13:36 13,4 C 20,0 C 12,8 C 76 % 1020,9 hPa 0,0 l/m 2 min 0 min 743 W/m 16,1 km/h (3 Bft) 97,83 %
10.10.2020 13:38 13,6 C 20,0 C 13,3 C 75 % 1020,9 hPa 0,0 l/m 2 min 0 min 537 W/m 12,9 km/h (3 Bft) 97,87 %
10.10.2020 13:40 13,7 C 19,4 C 13,9 C 74 % 1020,9 hPa 0,0 l/m 2 min 0 min 690 W/m 22,5 km/h (4 Bft) 95,74 %
10.10.2020 13:42 13,9 C 19,4 C 13,9 C 74 % 1020,8 hPa 0,0 l/m 2 min 0 min 714 W/m 12,9 km/h (3 Bft) 95,74 %
10.10.2020 13:44 14,1 C 20,6 C 14,4 C 74 % 1020,8 hPa 0,0 l/m 2 min 0 min 535 W/m 16,1 km/h (3 Bft) 97,87 %
10.10.2020 13:46 14,2 C 21,1 C 14,4 C 72 % 1020,8 hPa 0,0 l/m 2 min 0 min 535 W/m 12,9 km/h (3 Bft) 95,74 %
10.10.2020 13:48 14,3 C 21,1 C 13,9 C 72 % 1020,8 hPa 0,0 l/m 2 min 0 min 534 W/m 9,7 km/h (2 Bft) 97,83 %
10.10.2020 13:50 14,4 C 19,4 C 13,9 C 70 % 1020,8 hPa 0,0 l/m 2 min 0 min 533 W/m 19,3 km/h (3 Bft) 97,87 %
10.10.2020 13:52 14,6 C 17,2 C 13,3 C 69 % 1020,8 hPa 0,0 l/m 2 min 0 min 533 W/m 16,1 km/h (3 Bft) 97,56 %
10.10.2020 13:54 14,6 C 15,6 C 12,8 C 68 % 1020,8 hPa 0,0 l/m 0 min 0 min 218 W/m 12,9 km/h (3 Bft) 95,74 %
10.10.2020 13:56 14,5 C 14,4 C 12,8 C 68 % 1020,8 hPa 0,0 l/m 0 min 0 min 185 W/m 16,1 km/h (3 Bft) 97,92 %
10.10.2020 13:58 14,4 C 13,9 C 12,2 C 68 % 1020,8 hPa 0,0 l/m 0 min 0 min 174 W/m 12,9 km/h (3 Bft) 97,87 %
10.10.2020 14:00 14,3 C 13,9 C 12,2 C 68 % 1020,8 hPa 0,0 l/m 0 min 0 min 186 W/m 12,9 km/h (3 Bft) 97,87 %
10.10.2020 14:02 14,3 C 15,0 C 12,2 C 68 % 1020,7 hPa 0,0 l/m 0 min 0 min 177 W/m 16,1 km/h (3 Bft) 93,88 %
10.10.2020 14:04 14,3 C 16,1 C 12,2 C 69 % 1020,7 hPa 0,0 l/m 2 min 0 min 378 W/m 16,1 km/h (3 Bft) 97,87 %
10.10.2020 14:06 14,2 C 15,6 C 12,2 C 69 % 1020,7 hPa 0,0 l/m 2 min 0 min 300 W/m 12,9 km/h (3 Bft) 97,87 %
10.10.2020 14:08 14,2 C 15,0 C 12,2 C 70 % 1020,7 hPa 0,0 l/m 2 min 0 min 276 W/m 16,1 km/h (3 Bft) 97,87 %
10.10.2020 14:10 14,1 C 16,7 C 12,8 C 69 % 1020,7 hPa 0,0 l/m 2 min 0 min 269 W/m 16,1 km/h (3 Bft) 97,87 %
10.10.2020 14:12 14,1 C 16,1 C 12,8 C 69 % 1020,7 hPa 0,0 l/m 2 min 0 min 269 W/m 12,9 km/h (3 Bft) 97,87 %
10.10.2020 14:14 14,2 C 16,7 C 12,8 C 70 % 1020,7 hPa 0,0 l/m 2 min 0 min 349 W/m 12,9 km/h (3 Bft) 97,83 %
10.10.2020 14:16 14,2 C 17,2 C 12,8 C 70 % 1020,7 hPa 0,0 l/m 2 min 0 min 526 W/m 16,1 km/h (3 Bft) 97,87 %
10.10.2020 14:18 14,2 C 18,3 C 12,8 C 70 % 1020,7 hPa 0,0 l/m 2 min 0 min 568 W/m 12,9 km/h (3 Bft) 97,87 %
10.10.2020 14:20 14,3 C 17,2 C 12,8 C 70 % 1020,7 hPa 0,0 l/m 2 min 0 min 568 W/m 12,9 km/h (3 Bft) 97,87 %
10.10.2020 14:22 14,3 C 16,1 C 12,8 C 70 % 1020,6 hPa 0,0 l/m 0 min 0 min 214 W/m 9,7 km/h (2 Bft) 95,74 %
10.10.2020 14:24 14,3 C 15,0 C 12,8 C 71 % 1020,6 hPa 0,0 l/m 0 min 0 min 154 W/m 12,9 km/h (3 Bft) 95,74 %
10.10.2020 14:26 14,3 C 15,0 C 12,8 C 71 % 1020,6 hPa 0,0 l/m 0 min 0 min 151 W/m 12,9 km/h (3 Bft) 93,48 %
10.10.2020 14:28 14,3 C 17,8 C 12,8 C 72 % 1020,6 hPa 0,0 l/m 2 min 0 min 445 W/m 9,7 km/h (2 Bft) 93,62 %
10.10.2020 14:30 14,3 C 19,4 C 12,8 C 72 % 1020,5 hPa 0,0 l/m 2 min 0 min 701 W/m 9,7 km/h (2 Bft) 93,62 %
10.10.2020 14:32 14,4 C 20,0 C 13,3 C 71 % 1020,4 hPa 0,0 l/m 2 min 0 min 508 W/m 16,1 km/h (3 Bft) 91,49 %
10.10.2020 14:34 14,6 C 19,4 C 13,3 C 71 % 1020,4 hPa 0,0 l/m 2 min 0 min 698 W/m 22,5 km/h (4 Bft) 91,49 %
10.10.2020 14:36 14,7 C 20,0 C 13,3 C 70 % 1020,3 hPa 0,0 l/m 2 min 0 min 505 W/m 19,3 km/h (3 Bft) 93,62 %
10.10.2020 14:38 14,7 C 20,0 C 13,3 C 69 % 1020,3 hPa 0,0 l/m 2 min 0 min 503 W/m 19,3 km/h (3 Bft) 95,65 %
10.10.2020 14:40 14,8 C 20,6 C 13,3 C 69 % 1020,3 hPa 0,0 l/m 2 min 0 min 634 W/m 12,9 km/h (3 Bft) 93,62 %
10.10.2020 14:42 14,9 C 20,0 C 13,3 C 69 % 1020,3 hPa 0,0 l/m 2 min 0 min 594 W/m 16,1 km/h (3 Bft) 93,62 %
10.10.2020 14:44 15,0 C 18,9 C 13,3 C 69 % 1020,3 hPa 0,0 l/m 2 min 0 min 603 W/m 25,7 km/h (4 Bft) 95,74 %
10.10.2020 14:46 15,1 C 17,8 C 13,3 C 68 % 1020,3 hPa 0,0 l/m 2 min 0 min 647 W/m 22,5 km/h (4 Bft) 93,62 %
10.10.2020 14:48 15,1 C 17,2 C 13,3 C 69 % 1020,3 hPa 0,0 l/m 2 min 0 min 633 W/m 12,9 km/h (3 Bft) 93,62 %
10.10.2020 14:50 15,1 C 16,7 C 13,3 C 70 % 1020,3 hPa 0,0 l/m 2 min 0 min 426 W/m 16,1 km/h (3 Bft) 93,48 %
10.10.2020 14:52 15,1 C 15,6 C 12,8 C 69 % 1020,2 hPa 0,0 l/m 0 min 0 min 159 W/m 12,9 km/h (3 Bft) 89,36 %
10.10.2020 14:54 15,0 C 15,6 C 12,8 C 69 % 1020,2 hPa 0,0 l/m 0 min 0 min 205 W/m 12,9 km/h (3 Bft) 93,62 %
10.10.2020 14:56 14,9 C 16,7 C 12,8 C 69 % 1020,2 hPa 0,0 l/m 0 min 0 min 216 W/m 16,1 km/h (3 Bft) 97,87 %
10.10.2020 14:58 14,9 C 15,6 C 12,8 C 68 % 1020,2 hPa 0,0 l/m 0 min 0 min 220 W/m 19,3 km/h (3 Bft) 97,87 %
10.10.2020 15:00 14,8 C 14,4 C 12,8 C 68 % 1020,2 hPa 0,0 l/m 0 min 0 min 194 W/m 12,9 km/h (3 Bft) 97,83 %
10.10.2020 15:02 14,7 C 13,9 C 12,8 C 68 % 1020,3 hPa 0,0 l/m 0 min 0 min 149 W/m 22,5 km/h (4 Bft) 95,74 %
10.10.2020 15:04 14,5 C 13,3 C 12,2 C 67 % 1020,2 hPa 0,0 l/m 0 min 0 min 125 W/m 12,9 km/h (3 Bft) 97,87 %
10.10.2020 15:06 14,3 C 13,3 C 12,2 C 67 % 1020,2 hPa 0,0 l/m 0 min 0 min 109 W/m 12,9 km/h (3 Bft) 95,74 %
10.10.2020 15:08 14,3 C 12,8 C 12,2 C 67 % 1020,2 hPa 0,0 l/m 0 min 0 min 81 W/m 12,9 km/h (3 Bft) 100,00 %
10.10.2020 15:10 14,3 C 12,8 C 11,7 C 68 % 1020,2 hPa 0,0 l/m 0 min 0 min 59 W/m 9,7 km/h (2 Bft) 97,87 %
10.10.2020 15:12 14,1 C 12,2 C 11,7 C 68 % 1020,2 hPa 0,0 l/m 0 min 0 min 59 W/m 16,1 km/h (3 Bft) 100,00 %
10.10.2020 15:14 13,9 C 12,2 C 11,7 C 69 % 1020,3 hPa 0,0 l/m 0 min 0 min 62 W/m 25,7 km/h (4 Bft) 100,00 %
10.10.2020 15:16 13,8 C 12,2 C 11,7 C 69 % 1020,3 hPa 0,0 l/m 0 min 0 min 57 W/m 16,1 km/h (3 Bft) 100,00 %
10.10.2020 15:18 13,7 C 12,2 C 11,7 C 70 % 1020,2 hPa 0,0 l/m 0 min 0 min 53 W/m 12,9 km/h (3 Bft) 95,74 %
10.10.2020 15:20 13,6 C 12,2 C 11,7 C 70 % 1020,2 hPa 0,0 l/m 0 min 0 min 47 W/m 6,4 km/h (2 Bft) 97,87 %
10.10.2020 15:22 13,5 C 12,2 C 11,7 C 71 % 1020,3 hPa 0,0 l/m 0 min 0 min 35 W/m 6,4 km/h (2 Bft) 100,00 %
10.10.2020 15:24 13,4 C 12,2 C 11,7 C 71 % 1020,2 hPa 0,0 l/m 0 min 0 min 33 W/m 16,1 km/h (3 Bft) 95,74 %
10.10.2020 15:26 13,3 C 10,6 C 11,1 C 72 % 1020,3 hPa 0,0 l/m 0 min 2 min 45 W/m 19,3 km/h (3 Bft) 97,92 %
10.10.2020 15:28 13,3 C 10,6 C 11,1 C 73 % 1020,3 hPa 0,0 l/m 0 min 2 min 85 W/m 19,3 km/h (3 Bft) 100,00 %
10.10.2020 15:30 13,2 C 10,6 C 11,1 C 74 % 1020,3 hPa 0,0 l/m 0 min 0 min 142 W/m 25,7 km/h (4 Bft) 100,00 %
10.10.2020 15:32 13,1 C 11,7 C 11,1 C 74 % 1020,2 hPa 0,0 l/m 0 min 0 min 155 W/m 12,9 km/h (3 Bft) 100,00 %
10.10.2020 15:34 13,0 C 11,7 C 11,1 C 74 % 1020,3 hPa 0,0 l/m 0 min 0 min 144 W/m 19,3 km/h (3 Bft) 100,00 %
10.10.2020 15:36 12,9 C 12,2 C 11,1 C 74 % 1020,2 hPa 0,0 l/m 0 min 0 min 166 W/m 16,1 km/h (3 Bft) 97,87 %
10.10.2020 15:38 12,9 C 12,2 C 11,1 C 75 % 1020,2 hPa 0,0 l/m 0 min 0 min 158 W/m 16,1 km/h (3 Bft) 97,87 %
10.10.2020 15:40 12,8 C 12,8 C 11,1 C 75 % 1020,3 hPa 0,0 l/m 0 min 0 min 115 W/m 9,7 km/h (2 Bft) 100,00 %
10.10.2020 15:42 12,8 C 12,8 C 11,1 C 76 % 1020,3 hPa 0,0 l/m 0 min 0 min 98 W/m 3,2 km/h (1 Bft) 97,87 %
10.10.2020 15:44 12,8 C 12,2 C 11,1 C 76 % 1020,3 hPa 0,0 l/m 0 min 0 min 87 W/m 16,1 km/h (3 Bft) 100,00 %
10.10.2020 15:46 12,8 C 12,2 C 11,1 C 75 % 1020,2 hPa 0,0 l/m 0 min 0 min 74 W/m 19,3 km/h (3 Bft) 100,00 %
10.10.2020 15:48 12,7 C 11,7 C 11,1 C 75 % 1020,3 hPa 0,0 l/m 0 min 0 min 68 W/m 32,2 km/h (5 Bft) 100,00 %
10.10.2020 15:50 12,7 C 11,1 C 11,1 C 75 % 1020,2 hPa 0,0 l/m 0 min 0 min 73 W/m 12,9 km/h (3 Bft) 100,00 %
10.10.2020 15:52 12,7 C 10,6 C 10,6 C 76 % 1020,3 hPa 0,0 l/m 0 min 2 min 73 W/m 16,1 km/h (3 Bft) 100,00 %
10.10.2020 15:54 12,6 C 10,6 C 10,6 C 77 % 1020,2 hPa 0,0 l/m 0 min 0 min 68 W/m 6,4 km/h (2 Bft) 100,00 %
10.10.2020 15:56 12,6 C 10,6 C 10,6 C 77 % 1020,2 hPa 0,0 l/m 0 min 0 min 62 W/m 6,4 km/h (2 Bft) 100,00 %
10.10.2020 15:58 12,6 C 10,6 C 10,6 C 78 % 1020,2 hPa 0,0 l/m 0 min 0 min 61 W/m 16,1 km/h (3 Bft) 100,00 %
10.10.2020 16:00 12,5 C 11,1 C 10,6 C 77 % 1020,1 hPa 0,0 l/m 0 min 0 min 64 W/m 16,1 km/h (3 Bft) 100,00 %
10.10.2020 16:02 12,4 C 11,7 C 10,6 C 77 % 1020,1 hPa 0,0 l/m 0 min 0 min 77 W/m 22,5 km/h (4 Bft) 100,00 %
10.10.2020 16:04 12,4 C 11,7 C 10,6 C 76 % 1020,1 hPa 0,0 l/m 0 min 0 min 89 W/m 19,3 km/h (3 Bft) 97,87 %
10.10.2020 16:06 12,3 C 11,7 C 10,6 C 76 % 1020,1 hPa 0,0 l/m 0 min 0 min 77 W/m 29,0 km/h (5 Bft) 100,00 %
10.10.2020 16:08 12,3 C 11,7 C 10,6 C 76 % 1020,1 hPa 0,0 l/m 0 min 0 min 70 W/m 29,0 km/h (5 Bft) 97,83 %
10.10.2020 16:10 12,2 C 11,7 C 11,1 C 76 % 1020,1 hPa 0,0 l/m 0 min 0 min 82 W/m 12,9 km/h (3 Bft) 100,00 %
10.10.2020 16:12 12,2 C 11,7 C 11,1 C 77 % 1020,1 hPa 0,0 l/m 0 min 0 min 96 W/m 6,4 km/h (2 Bft) 100,00 %
10.10.2020 16:14 12,2 C 11,7 C 11,1 C 77 % 1020,1 hPa 0,0 l/m 0 min 0 min 87 W/m 12,9 km/h (3 Bft) 100,00 %
10.10.2020 16:16 12,2 C 11,7 C 11,1 C 77 % 1020,0 hPa 0,0 l/m 0 min 0 min 77 W/m 12,9 km/h (3 Bft) 100,00 %
10.10.2020 16:18 12,2 C 11,7 C 11,1 C 76 % 1020,0 hPa 0,0 l/m 0 min 0 min 80 W/m 22,5 km/h (4 Bft) 100,00 %
10.10.2020 16:20 12,2 C 11,7 C 11,1 C 76 % 1020,0 hPa 0,0 l/m 0 min 0 min 79 W/m 12,9 km/h (3 Bft) 100,00 %
10.10.2020 16:22 12,2 C 11,7 C 11,1 C 75 % 1020,0 hPa 0,0 l/m 0 min 0 min 67 W/m 32,2 km/h (5 Bft) 100,00 %
10.10.2020 16:24 12,1 C 11,7 C 11,1 C 75 % 1020,0 hPa 0,0 l/m 0 min 0 min 50 W/m 22,5 km/h (4 Bft) 100,00 %
10.10.2020 16:26 12,1 C 11,1 C 10,6 C 75 % 1020,0 hPa 0,0 l/m 0 min 0 min 42 W/m 16,1 km/h (3 Bft) 100,00 %
10.10.2020 16:28 12,1 C 11,1 C 10,6 C 76 % 1020,0 hPa 0,0 l/m 0 min 2 min 39 W/m 19,3 km/h (3 Bft) 100,00 %
10.10.2020 16:30 12,1 C 11,1 C 10,6 C 76 % 1020,1 hPa 0,0 l/m 0 min 0 min 55 W/m 12,9 km/h (3 Bft) 100,00 %
10.10.2020 16:32 12,1 C 11,7 C 10,6 C 76 % 1020,1 hPa 0,0 l/m 0 min 0 min 90 W/m 19,3 km/h (3 Bft) 98,00 %
10.10.2020 16:34 12,1 C 11,7 C 10,6 C 76 % 1020,1 hPa 0,0 l/m 0 min 0 min 110 W/m 12,9 km/h (3 Bft) 100,00 %
10.10.2020 16:36 12,0 C 11,7 C 10,6 C 77 % 1020,0 hPa 0,0 l/m 0 min 0 min 100 W/m 12,9 km/h (3 Bft) 95,83 %
10.10.2020 16:38 12,0 C 11,7 C 10,6 C 77 % 1020,1 hPa 0,0 l/m 0 min 0 min 96 W/m 16,1 km/h (3 Bft) 97,87 %
10.10.2020 16:40 12,0 C 11,7 C 10,6 C 76 % 1020,1 hPa 0,0 l/m 0 min 0 min 84 W/m 19,3 km/h (3 Bft) 97,87 %
10.10.2020 16:42 12,0 C 11,7 C 10,6 C 76 % 1019,9 hPa 0,0 l/m 0 min 0 min 63 W/m 12,9 km/h (3 Bft) 97,87 %
10.10.2020 16:44 12,0 C 11,7 C 10,6 C 76 % 1019,9 hPa 0,0 l/m 0 min 0 min 56 W/m 29,0 km/h (5 Bft) 97,87 %
10.10.2020 16:46 11,9 C 11,7 C 10,6 C 76 % 1019,9 hPa 0,0 l/m 0 min 0 min 59 W/m 12,9 km/h (3 Bft) 91,49 %
10.10.2020 16:48 11,9 C 11,7 C 10,6 C 76 % 1019,9 hPa 0,0 l/m 0 min 0 min 51 W/m 16,1 km/h (3 Bft) 97,87 %
10.10.2020 16:50 11,9 C 11,7 C 10,6 C 75 % 1019,9 hPa 0,0 l/m 0 min 0 min 46 W/m 12,9 km/h (3 Bft) 97,87 %
10.10.2020 16:52 11,9 C 11,1 C 10,6 C 75 % 1019,9 hPa 0,0 l/m 0 min 0 min 39 W/m 12,9 km/h (3 Bft) 100,00 %
10.10.2020 16:54 11,9 C 11,1 C 10,6 C 75 % 1019,8 hPa 0,0 l/m 0 min 0 min 30 W/m 16,1 km/h (3 Bft) 95,65 %
10.10.2020 16:56 11,9 C 11,1 C 10,6 C 75 % 1019,8 hPa 0,0 l/m 0 min 0 min 32 W/m 12,9 km/h (3 Bft) 95,74 %
10.10.2020 16:58 11,9 C 11,1 C 10,6 C 75 % 1019,8 hPa 0,0 l/m 0 min 0 min 46 W/m 12,9 km/h (3 Bft) 100,00 %
10.10.2020 17:00 11,9 C 11,1 C 10,6 C 75 % 1019,8 hPa 0,0 l/m 0 min 0 min 50 W/m 9,7 km/h (2 Bft) 95,83 %
10.10.2020 17:02 11,9 C 11,1 C 10,6 C 75 % 1019,7 hPa 0,0 l/m 0 min 0 min 40 W/m 16,1 km/h (3 Bft) 96,00 %
10.10.2020 17:04 11,9 C 11,1 C 10,6 C 75 % 1019,8 hPa 0,0 l/m 0 min 0 min 25 W/m 6,4 km/h (2 Bft) 93,75 %
10.10.2020 17:06 11,8 C 11,1 C 10,6 C 76 % 1019,7 hPa 0,0 l/m 0 min 0 min 17 W/m 12,9 km/h (3 Bft) 95,65 %
10.10.2020 17:08 11,8 C 11,1 C 10,6 C 76 % 1019,8 hPa 0,0 l/m 0 min 0 min 13 W/m 19,3 km/h (3 Bft) 95,74 %
10.10.2020 17:10 11,8 C 11,1 C 10,6 C 75 % 1019,8 hPa 0,0 l/m 0 min 0 min 13 W/m 12,9 km/h (3 Bft) 91,49 %
10.10.2020 17:12 11,8 C 11,1 C 10,6 C 76 % 1019,7 hPa 0,0 l/m 0 min 0 min 13 W/m 12,9 km/h (3 Bft) 93,62 %
10.10.2020 17:14 11,8 C 11,1 C 10,6 C 75 % 1019,7 hPa 0,0 l/m 0 min 0 min 13 W/m 9,7 km/h (2 Bft) 93,62 %
10.10.2020 17:16 11,8 C 11,1 C 10,6 C 76 % 1019,7 hPa 0,0 l/m 0 min 0 min 16 W/m 3,2 km/h (1 Bft) 92,68 %
10.10.2020 17:18 11,8 C 11,1 C 10,6 C 76 % 1019,7 hPa 0,0 l/m 0 min 0 min 19 W/m 16,1 km/h (3 Bft) 93,62 %
10.10.2020 17:20 11,8 C 11,1 C 10,6 C 75 % 1019,7 hPa 0,0 l/m 0 min 0 min 18 W/m 16,1 km/h (3 Bft) 91,49 %
10.10.2020 17:22 11,8 C 11,1 C 10,6 C 75 % 1019,7 hPa 0,0 l/m 0 min 0 min 18 W/m 9,7 km/h (2 Bft) 95,83 %
10.10.2020 17:24 11,7 C 11,1 C 10,6 C 75 % 1019,7 hPa 0,0 l/m 0 min 0 min 18 W/m 9,7 km/h (2 Bft) 95,74 %
10.10.2020 17:26 11,7 C 11,1 C 10,6 C 75 % 1019,7 hPa 0,0 l/m 0 min 0 min 19 W/m 9,7 km/h (2 Bft) 97,83 %
10.10.2020 17:28 11,7 C 11,1 C 10,6 C 75 % 1019,7 hPa 0,0 l/m 0 min 0 min 20 W/m 12,9 km/h (3 Bft) 93,62 %
10.10.2020 17:30 11,7 C 11,1 C 10,6 C 76 % 1019,7 hPa 0,0 l/m 0 min 0 min 27 W/m 12,9 km/h (3 Bft) 95,74 %
10.10.2020 17:32 11,7 C 11,7 C 10,6 C 76 % 1019,6 hPa 0,0 l/m 0 min 0 min 63 W/m 6,4 km/h (2 Bft) 95,65 %
10.10.2020 17:34 11,7 C 11,7 C 10,6 C 75 % 1019,6 hPa 0,0 l/m 0 min 0 min 85 W/m 12,9 km/h (3 Bft) 95,74 %
10.10.2020 17:36 11,7 C 11,7 C 10,6 C 75 % 1019,6 hPa 0,0 l/m 2 min 0 min 108 W/m 22,5 km/h (4 Bft) 95,74 %
10.10.2020 17:38 11,7 C 11,7 C 10,6 C 75 % 1019,5 hPa 0,0 l/m 2 min 0 min 95 W/m 19,3 km/h (3 Bft) 95,74 %
10.10.2020 17:40 11,7 C 11,7 C 10,6 C 75 % 1019,5 hPa 0,0 l/m 0 min 0 min 78 W/m 29,0 km/h (5 Bft) 95,74 %
10.10.2020 17:42 11,8 C 11,7 C 10,6 C 74 % 1019,4 hPa 0,0 l/m 0 min 0 min 68 W/m 16,1 km/h (3 Bft) 97,87 %
10.10.2020 17:44 11,8 C 11,7 C 10,6 C 74 % 1019,4 hPa 0,0 l/m 0 min 0 min 63 W/m 12,9 km/h (3 Bft) 95,65 %
10.10.2020 17:46 11,8 C 11,7 C 10,6 C 74 % 1019,5 hPa 0,0 l/m 0 min 0 min 56 W/m 9,7 km/h (2 Bft) 91,49 %
10.10.2020 17:48 11,8 C 11,7 C 10,6 C 74 % 1019,4 hPa 0,0 l/m 0 min 0 min 49 W/m 12,9 km/h (3 Bft) 95,74 %
10.10.2020 17:50 11,8 C 11,7 C 10,6 C 74 % 1019,4 hPa 0,0 l/m 0 min 0 min 47 W/m 29,0 km/h (5 Bft) 93,62 %
10.10.2020 17:52 11,8 C 11,7 C 10,6 C 74 % 1019,5 hPa 0,0 l/m 0 min 0 min 46 W/m 16,1 km/h (3 Bft) 95,74 %
10.10.2020 17:54 11,8 C 11,7 C 10,6 C 73 % 1019,4 hPa 0,0 l/m 0 min 0 min 42 W/m 25,7 km/h (4 Bft) 97,87 %
10.10.2020 17:56 11,8 C 11,7 C 10,6 C 73 % 1019,4 hPa 0,0 l/m 0 min 0 min 39 W/m 12,9 km/h (3 Bft) 95,65 %
10.10.2020 17:58 11,9 C 11,7 C 10,6 C 73 % 1019,4 hPa 0,0 l/m 0 min 0 min 34 W/m 25,7 km/h (4 Bft) 100,00 %
10.10.2020 18:00 11,9 C 11,1 C 10,6 C 72 % 1019,4 hPa 0,0 l/m 0 min 0 min 32 W/m 25,7 km/h (4 Bft) 97,87 %
10.10.2020 18:02 11,9 C 11,1 C 10,6 C 72 % 1019,4 hPa 0,0 l/m 0 min 0 min 33 W/m 16,1 km/h (3 Bft) 93,62 %
10.10.2020 18:04 11,9 C 11,1 C 10,6 C 72 % 1019,4 hPa 0,0 l/m 0 min 0 min 34 W/m 22,5 km/h (4 Bft) 97,87 %
10.10.2020 18:08 11,9 C 11,1 C 10,6 C 72 % 1019,4 hPa 0,0 l/m 0 min 0 min 36 W/m 22,5 km/h (4 Bft) 97,85 %
10.10.2020 18:10 11,9 C 11,1 C 10,6 C 72 % 1019,5 hPa 0,0 l/m 0 min 0 min 28 W/m 16,1 km/h (3 Bft) 100,00 %
10.10.2020 18:12 11,9 C 11,1 C 10,6 C 72 % 1019,5 hPa 0,0 l/m 0 min 0 min 20 W/m 22,5 km/h (4 Bft) 100,00 %
10.10.2020 18:14 11,9 C 11,1 C 10,6 C 72 % 1019,5 hPa 0,0 l/m 0 min 0 min 16 W/m 22,5 km/h (4 Bft) 100,00 %
10.10.2020 18:16 11,9 C 11,1 C 10,6 C 72 % 1019,4 hPa 0,0 l/m 0 min 0 min 13 W/m 22,5 km/h (4 Bft) 97,87 %
10.10.2020 18:18 11,8 C 11,1 C 10,6 C 72 % 1019,4 hPa 0,0 l/m 0 min 0 min 11 W/m 16,1 km/h (3 Bft) 100,00 %
10.10.2020 18:20 11,8 C 11,1 C 10,6 C 72 % 1019,4 hPa 0,0 l/m 0 min 0 min 9 W/m 16,1 km/h (3 Bft) 97,87 %
10.10.2020 18:22 11,8 C 11,1 C 10,6 C 72 % 1019,4 hPa 0,0 l/m 0 min 0 min 7 W/m 16,1 km/h (3 Bft) 100,00 %
10.10.2020 18:24 11,8 C 11,1 C 10,6 C 72 % 1019,3 hPa 0,0 l/m 0 min 0 min 7 W/m 22,5 km/h (4 Bft) 100,00 %
10.10.2020 18:26 11,8 C 11,1 C 10,6 C 72 % 1019,4 hPa 0,0 l/m 0 min 0 min 7 W/m 19,3 km/h (3 Bft) 100,00 %
10.10.2020 18:28 11,8 C 11,1 C 10,6 C 72 % 1019,3 hPa 0,0 l/m 0 min 0 min 7 W/m 19,3 km/h (3 Bft) 100,00 %
10.10.2020 18:30 11,8 C 11,1 C 10,6 C 72 % 1019,3 hPa 0,0 l/m 0 min 0 min 7 W/m 19,3 km/h (3 Bft) 100,00 %
10.10.2020 18:32 11,8 C 11,1 C 10,6 C 72 % 1019,4 hPa 0,0 l/m 0 min 0 min 6 W/m 19,3 km/h (3 Bft) 100,00 %
10.10.2020 18:34 11,8 C 11,1 C 10,6 C 72 % 1019,3 hPa 0,0 l/m 0 min 0 min 5 W/m 19,3 km/h (3 Bft) 100,00 %
10.10.2020 18:36 11,7 C 11,1 C 10,6 C 72 % 1019,3 hPa 0,0 l/m 0 min 0 min 5 W/m 25,7 km/h (4 Bft) 100,00 %
10.10.2020 18:38 11,7 C 11,1 C 10,6 C 72 % 1019,4 hPa 0,0 l/m 0 min 0 min 5 W/m 25,7 km/h (4 Bft) 100,00 %
10.10.2020 18:40 11,7 C 11,1 C 10,6 C 72 % 1019,3 hPa 0,0 l/m 0 min 0 min 5 W/m 29,0 km/h (5 Bft) 100,00 %
10.10.2020 18:42 11,7 C 10,6 C 10,6 C 72 % 1019,3 hPa 0,0 l/m 0 min 0 min 4 W/m 25,7 km/h (4 Bft) 100,00 %
10.10.2020 18:44 11,7 C 10,6 C 10,6 C 72 % 1019,3 hPa 0,0 l/m 0 min 0 min 0 W/m 19,3 km/h (3 Bft) 100,00 %
10.10.2020 18:46 11,7 C 10,6 C 10,6 C 72 % 1019,3 hPa 0,0 l/m 0 min 0 min 0 W/m 19,3 km/h (3 Bft) 97,92 %
10.10.2020 18:48 11,7 C 10,6 C 10,6 C 72 % 1019,3 hPa 0,0 l/m 0 min 0 min 0 W/m 32,2 km/h (5 Bft) 100,00 %
10.10.2020 18:50 11,7 C 10,6 C 10,6 C 72 % 1019,3 hPa 0,0 l/m 0 min 2 min 0 W/m 22,5 km/h (4 Bft) 100,00 %
10.10.2020 18:52 11,7 C 10,6 C 10,0 C 73 % 1019,3 hPa 0,0 l/m 0 min 0 min 0 W/m 16,1 km/h (3 Bft) 100,00 %
10.10.2020 18:54 11,7 C 10,6 C 10,0 C 73 % 1019,3 hPa 0,0 l/m 0 min 0 min 0 W/m 12,9 km/h (3 Bft) 100,00 %
10.10.2020 18:56 11,7 C 10,6 C 10,0 C 73 % 1019,2 hPa 0,0 l/m 0 min 0 min 0 W/m 29,0 km/h (5 Bft) 100,00 %
10.10.2020 18:58 11,6 C 10,6 C 10,0 C 73 % 1019,3 hPa 0,0 l/m 0 min 0 min 0 W/m 16,1 km/h (3 Bft) 100,00 %
10.10.2020 19:00 11,6 C 10,6 C 10,0 C 73 % 1019,3 hPa 0,0 l/m 0 min 0 min 0 W/m 16,1 km/h (3 Bft) 100,00 %
10.10.2020 19:02 11,6 C 10,6 C 10,0 C 73 % 1019,3 hPa 0,0 l/m 0 min 0 min 0 W/m 16,1 km/h (3 Bft) 95,35 %
10.10.2020 19:04 11,6 C 10,6 C 10,0 C 73 % 1019,3 hPa 0,0 l/m 0 min 0 min 0 W/m 19,3 km/h (3 Bft) 100,00 %
10.10.2020 19:06 11,6 C 10,6 C 10,0 C 73 % 1019,3 hPa 0,0 l/m 0 min 0 min 0 W/m 16,1 km/h (3 Bft) 97,87 %
10.10.2020 19:08 11,6 C 10,6 C 10,0 C 73 % 1019,3 hPa 0,0 l/m 0 min 0 min 0 W/m 16,1 km/h (3 Bft) 100,00 %
10.10.2020 19:10 11,6 C 10,6 C 10,0 C 73 % 1019,3 hPa 0,0 l/m 0 min 0 min 0 W/m 16,1 km/h (3 Bft) 100,00 %
10.10.2020 19:12 11,6 C 10,0 C 10,0 C 74 % 1019,3 hPa 0,0 l/m 0 min 0 min 0 W/m 19,3 km/h (3 Bft) 100,00 %
10.10.2020 19:14 11,5 C 10,0 C 10,0 C 74 % 1019,3 hPa 0,0 l/m 0 min 2 min 0 W/m 25,7 km/h (4 Bft) 100,00 %
10.10.2020 19:16 11,5 C 9,4 C 10,0 C 75 % 1019,4 hPa 0,0 l/m 0 min 2 min 0 W/m 25,7 km/h (4 Bft) 100,00 %
10.10.2020 19:18 11,4 C 8,9 C 9,4 C 76 % 1019,4 hPa 0,0 l/m 0 min 2 min 0 W/m 29,0 km/h (5 Bft) 100,00 %
10.10.2020 19:20 11,4 C 8,9 C 9,4 C 76 % 1019,4 hPa 0,0 l/m 0 min 2 min 0 W/m 22,5 km/h (4 Bft) 100,00 %
10.10.2020 19:22 11,3 C 8,9 C 9,4 C 77 % 1019,3 hPa 0,0 l/m 0 min 2 min 0 W/m 12,9 km/h (3 Bft) 100,00 %
10.10.2020 19:24 11,3 C 8,9 C 9,4 C 78 % 1019,3 hPa 0,0 l/m 0 min 2 min 0 W/m 22,5 km/h (4 Bft) 97,83 %
10.10.2020 19:26 11,2 C 8,9 C 9,4 C 78 % 1019,3 hPa 0,0 l/m 0 min 2 min 0 W/m 16,1 km/h (3 Bft) 97,87 %
10.10.2020 19:28 11,2 C 9,4 C 9,4 C 77 % 1019,2 hPa 0,0 l/m 0 min 0 min 0 W/m 12,9 km/h (3 Bft) 100,00 %
10.10.2020 19:30 11,1 C 9,4 C 9,4 C 78 % 1019,2 hPa 0,0 l/m 0 min 0 min 0 W/m 16,1 km/h (3 Bft) 100,00 %
10.10.2020 19:32 11,1 C 9,4 C 9,4 C 78 % 1019,2 hPa 0,0 l/m 0 min 0 min 0 W/m 16,1 km/h (3 Bft) 95,74 %
10.10.2020 19:34 11,1 C 9,4 C 8,9 C 79 % 1019,2 hPa 0,0 l/m 0 min 0 min 0 W/m 16,1 km/h (3 Bft) 97,87 %
10.10.2020 19:36 11,0 C 9,4 C 8,9 C 79 % 1019,2 hPa 0,0 l/m 0 min 0 min 0 W/m 16,1 km/h (3 Bft) 97,83 %
10.10.2020 19:38 11,0 C 9,4 C 8,9 C 79 % 1019,3 hPa 0,0 l/m 0 min 0 min 0 W/m 16,1 km/h (3 Bft) 97,87 %
10.10.2020 19:40 10,9 C 9,4 C 9,4 C 79 % 1019,3 hPa 0,0 l/m 0 min 0 min 0 W/m 25,7 km/h (4 Bft) 97,56 %
10.10.2020 19:42 10,9 C 10,0 C 9,4 C 79 % 1019,2 hPa 0,0 l/m 0 min 0 min 0 W/m 19,3 km/h (3 Bft) 95,74 %
10.10.2020 19:44 10,9 C 10,0 C 9,4 C 79 % 1019,1 hPa 0,0 l/m 0 min 0 min 0 W/m 16,1 km/h (3 Bft) 95,74 %
10.10.2020 19:46 10,8 C 10,0 C 9,4 C 79 % 1019,2 hPa 0,0 l/m 0 min 0 min 0 W/m 19,3 km/h (3 Bft) 97,92 %
10.10.2020 19:48 10,8 C 10,0 C 9,4 C 80 % 1019,2 hPa 0,0 l/m 0 min 0 min 0 W/m 19,3 km/h (3 Bft) 97,83 %
10.10.2020 19:50 10,8 C 10,0 C 9,4 C 80 % 1019,2 hPa 0,0 l/m 0 min 0 min 0 W/m 35,4 km/h (5 Bft) 95,74 %
10.10.2020 19:52 10,8 C 10,0 C 9,4 C 80 % 1019,1 hPa 0,0 l/m 0 min 0 min 0 W/m 19,3 km/h (3 Bft) 97,87 %
10.10.2020 19:54 10,8 C 10,0 C 9,4 C 80 % 1019,2 hPa 0,0 l/m 0 min 0 min 0 W/m 9,7 km/h (2 Bft) 93,62 %
10.10.2020 19:56 10,8 C 10,0 C 9,4 C 80 % 1019,2 hPa 0,0 l/m 0 min 0 min 0 W/m 19,3 km/h (3 Bft) 95,74 %
10.10.2020 19:58 10,7 C 10,0 C 9,4 C 80 % 1019,2 hPa 0,0 l/m 0 min 0 min 0 W/m 25,7 km/h (4 Bft) 95,74 %
10.10.2020 20:00 10,7 C 10,0 C 9,4 C 80 % 1019,2 hPa 0,0 l/m 0 min 0 min 0 W/m 12,9 km/h (3 Bft) 95,65 %
10.10.2020 20:02 10,7 C 10,0 C 9,4 C 80 % 1019,2 hPa 0,0 l/m 0 min 0 min 0 W/m 12,9 km/h (3 Bft) 89,36 %
10.10.2020 20:04 10,7 C 10,0 C 9,4 C 80 % 1019,2 hPa 0,0 l/m 0 min 0 min 0 W/m 16,1 km/h (3 Bft) 95,74 %
10.10.2020 20:06 10,7 C 10,0 C 9,4 C 80 % 1019,1 hPa 0,0 l/m 0 min 0 min 0 W/m 19,3 km/h (3 Bft) 91,49 %
10.10.2020 20:08 10,7 C 10,0 C 9,4 C 80 % 1019,1 hPa 0,0 l/m 0 min 0 min 0 W/m 16,1 km/h (3 Bft) 93,62 %
10.10.2020 20:10 10,7 C 10,0 C 9,4 C 80 % 1019,1 hPa 0,0 l/m 0 min 0 min 0 W/m 12,9 km/h (3 Bft) 91,49 %
10.10.2020 20:12 10,7 C 10,0 C 9,4 C 80 % 1019,1 hPa 0,0 l/m 0 min 0 min 0 W/m 22,5 km/h (4 Bft) 93,48 %
10.10.2020 20:14 10,7 C 10,0 C 9,4 C 80 % 1019,1 hPa 0,0 l/m 0 min 0 min 0 W/m 22,5 km/h (4 Bft) 91,49 %
10.10.2020 20:16 10,7 C 10,0 C 9,4 C 80 % 1019,1 hPa 0,0 l/m 0 min 0 min 0 W/m 25,7 km/h (4 Bft) 93,62 %
10.10.2020 20:18 10,7 C 10,0 C 9,4 C 80 % 1019,1 hPa 0,0 l/m 0 min 0 min 0 W/m 19,3 km/h (3 Bft) 93,62 %
10.10.2020 20:20 10,7 C 10,0 C 9,4 C 80 % 1019,1 hPa 0,0 l/m 0 min 0 min 0 W/m 25,7 km/h (4 Bft) 89,36 %
10.10.2020 20:22 10,7 C 10,0 C 9,4 C 80 % 1019,1 hPa 0,0 l/m 0 min 0 min 0 W/m 22,5 km/h (4 Bft) 93,62 %
10.10.2020 20:24 10,7 C 10,0 C 9,4 C 80 % 1019,1 hPa 0,0 l/m 0 min 0 min 0 W/m 16,1 km/h (3 Bft) 91,30 %
10.10.2020 20:26 10,8 C 10,0 C 9,4 C 80 % 1019,2 hPa 0,0 l/m 0 min 0 min 0 W/m 12,9 km/h (3 Bft) 95,74 %
10.10.2020 20:28 10,8 C 10,0 C 9,4 C 80 % 1019,2 hPa 0,0 l/m 0 min 0 min 0 W/m 22,5 km/h (4 Bft) 97,87 %
10.10.2020 20:30 10,8 C 10,0 C 9,4 C 80 % 1019,2 hPa 0,0 l/m 0 min 0 min 0 W/m 9,7 km/h (2 Bft) 97,87 %
10.10.2020 20:32 10,8 C 10,0 C 9,4 C 80 % 1019,2 hPa 0,0 l/m 0 min 0 min 0 W/m 12,9 km/h (3 Bft) 97,87 %
10.10.2020 20:34 10,8 C 10,0 C 9,4 C 80 % 1019,3 hPa 0,0 l/m 0 min 0 min 0 W/m 16,1 km/h (3 Bft) 97,87 %
10.10.2020 20:36 10,8 C 10,0 C 9,4 C 80 % 1019,3 hPa 0,0 l/m 0 min 0 min 0 W/m 12,9 km/h (3 Bft) 97,56 %
10.10.2020 20:38 10,8 C 10,0 C 9,4 C 80 % 1019,3 hPa 0,0 l/m 0 min 0 min 0 W/m 12,9 km/h (3 Bft) 95,74 %
10.10.2020 20:40 10,8 C 9,4 C 9,4 C 80 % 1019,4 hPa 0,0 l/m 0 min 0 min 0 W/m 12,9 km/h (3 Bft) 95,74 %
10.10.2020 20:42 10,8 C 9,4 C 9,4 C 81 % 1019,3 hPa 0,0 l/m 0 min 0 min 0 W/m 9,7 km/h (2 Bft) 97,87 %
10.10.2020 20:44 10,8 C 9,4 C 9,4 C 81 % 1019,4 hPa 0,0 l/m 0 min 0 min 0 W/m 22,5 km/h (4 Bft) 97,87 %
10.10.2020 20:46 10,7 C 9,4 C 9,4 C 81 % 1019,4 hPa 0,0 l/m 0 min 0 min 0 W/m 22,5 km/h (4 Bft) 97,87 %
10.10.2020 20:48 10,7 C 9,4 C 9,4 C 82 % 1019,4 hPa 0,0 l/m 0 min 0 min 0 W/m 19,3 km/h (3 Bft) 97,87 %
10.10.2020 20:50 10,7 C 9,4 C 9,4 C 82 % 1019,3 hPa 0,0 l/m 0 min 0 min 0 W/m 19,3 km/h (3 Bft) 97,83 %
10.10.2020 20:52 10,7 C 9,4 C 9,4 C 82 % 1019,4 hPa 0,0 l/m 0 min 0 min 0 W/m 12,9 km/h (3 Bft) 100,00 %
10.10.2020 20:54 10,7 C 8,9 C 9,4 C 82 % 1019,4 hPa 0,0 l/m 0 min 2 min 0 W/m 22,5 km/h (4 Bft) 97,87 %
10.10.2020 20:56 10,6 C 8,3 C 8,9 C 83 % 1019,4 hPa 0,0 l/m 0 min 2 min 0 W/m 16,1 km/h (3 Bft) 100,00 %
10.10.2020 20:58 10,6 C 8,3 C 8,3 C 84 % 1019,4 hPa 0,2 l/m 0 min 2 min 0 W/m 16,1 km/h (3 Bft) 97,96 %
10.10.2020 21:00 10,6 C 7,8 C 8,3 C 84 % 1019,4 hPa 0,0 l/m 0 min 2 min 0 W/m 12,9 km/h (3 Bft) 100,00 %
10.10.2020 21:02 10,6 C 7,8 C 8,3 C 84 % 1019,4 hPa 0,0 l/m 0 min 2 min 0 W/m 12,9 km/h (3 Bft) 100,00 %
10.10.2020 21:04 10,5 C 7,8 C 7,8 C 85 % 1019,4 hPa 0,2 l/m 0 min 2 min 0 W/m 12,9 km/h (3 Bft) 97,87 %
10.10.2020 21:06 10,5 C 7,8 C 7,8 C 85 % 1019,4 hPa 0,0 l/m 0 min 2 min 0 W/m 16,1 km/h (3 Bft) 97,87 %
10.10.2020 21:08 10,4 C 7,8 C 7,8 C 86 % 1019,4 hPa 0,0 l/m 0 min 2 min 0 W/m 16,1 km/h (3 Bft) 97,87 %
10.10.2020 21:10 10,3 C 7,8 C 7,8 C 87 % 1019,4 hPa 0,0 l/m 0 min 2 min 0 W/m 9,7 km/h (2 Bft) 100,00 %
10.10.2020 21:12 10,3 C 7,8 C 7,8 C 87 % 1019,4 hPa 0,0 l/m 0 min 2 min 0 W/m 9,7 km/h (2 Bft) 97,87 %
10.10.2020 21:14 10,2 C 7,8 C 7,8 C 88 % 1019,4 hPa 0,0 l/m 0 min 2 min 0 W/m 16,1 km/h (3 Bft) 100,00 %
10.10.2020 21:16 10,1 C 7,8 C 7,8 C 88 % 1019,4 hPa 0,2 l/m 0 min 2 min 0 W/m 9,7 km/h (2 Bft) 100,00 %
10.10.2020 21:18 10,1 C 7,8 C 7,8 C 88 % 1019,3 hPa 0,0 l/m 0 min 2 min 0 W/m 6,4 km/h (2 Bft) 100,00 %
10.10.2020 21:20 10,1 C 7,8 C 7,8 C 88 % 1019,3 hPa 0,0 l/m 0 min 2 min 0 W/m 3,2 km/h (1 Bft) 97,92 %
10.10.2020 21:22 10,0 C 7,8 C 7,8 C 89 % 1019,2 hPa 0,2 l/m 0 min 2 min 0 W/m 6,4 km/h (2 Bft) 100,00 %
10.10.2020 21:24 9,9 C 7,8 C 7,8 C 89 % 1019,2 hPa 0,0 l/m 0 min 2 min 0 W/m 9,7 km/h (2 Bft) 97,87 %
10.10.2020 21:26 9,9 C 7,8 C 7,8 C 89 % 1019,1 hPa 0,0 l/m 0 min 2 min 0 W/m 16,1 km/h (3 Bft) 100,00 %
10.10.2020 21:28 9,8 C 7,8 C 7,8 C 89 % 1019,2 hPa 0,0 l/m 0 min 2 min 0 W/m 12,9 km/h (3 Bft) 100,00 %
10.10.2020 21:30 9,8 C 7,8 C 7,8 C 90 % 1019,2 hPa 0,0 l/m 0 min 0 min 0 W/m 12,9 km/h (3 Bft) 100,00 %
10.10.2020 21:32 9,7 C 7,8 C 7,8 C 90 % 1019,2 hPa 0,0 l/m 0 min 2 min 0 W/m 6,4 km/h (2 Bft) 100,00 %
10.10.2020 21:34 9,7 C 7,8 C 7,8 C 90 % 1019,2 hPa 0,0 l/m 0 min 2 min 0 W/m 16,1 km/h (3 Bft) 100,00 %
10.10.2020 21:36 9,6 C 7,8 C 7,8 C 90 % 1019,1 hPa 0,0 l/m 0 min 2 min 0 W/m 19,3 km/h (3 Bft) 100,00 %
10.10.2020 21:38 9,6 C 7,8 C 7,8 C 91 % 1019,1 hPa 0,0 l/m 0 min 2 min 0 W/m 16,1 km/h (3 Bft) 100,00 %
10.10.2020 21:40 9,6 C 7,8 C 7,8 C 91 % 1019,1 hPa 0,0 l/m 0 min 0 min 0 W/m 12,9 km/h (3 Bft) 100,00 %
10.10.2020 21:42 9,5 C 7,8 C 7,8 C 91 % 1019,1 hPa 0,0 l/m 0 min 0 min 0 W/m 12,9 km/h (3 Bft) 100,00 %
10.10.2020 21:44 9,4 C 7,8 C 7,8 C 91 % 1019,1 hPa 0,0 l/m 0 min 0 min 0 W/m 12,9 km/h (3 Bft) 100,00 %
10.10.2020 21:46 9,4 C 7,8 C 7,8 C 92 % 1019,0 hPa 0,0 l/m 0 min 0 min 0 W/m 9,7 km/h (2 Bft) 97,83 %
10.10.2020 21:48 9,4 C 7,8 C 7,8 C 92 % 1019,0 hPa 0,0 l/m 0 min 2 min 0 W/m 16,1 km/h (3 Bft) 100,00 %
10.10.2020 21:50 9,4 C 7,8 C 7,8 C 92 % 1019,0 hPa 0,0 l/m 0 min 2 min 0 W/m 12,9 km/h (3 Bft) 97,87 %
10.10.2020 21:52 9,3 C 7,8 C 7,8 C 92 % 1019,0 hPa 0,0 l/m 0 min 2 min 0 W/m 16,1 km/h (3 Bft) 100,00 %
10.10.2020 21:54 9,3 C 7,8 C 7,8 C 92 % 1019,0 hPa 0,0 l/m 0 min 2 min 0 W/m 12,9 km/h (3 Bft) 100,00 %
10.10.2020 21:56 9,3 C 7,8 C 7,8 C 92 % 1018,9 hPa 0,0 l/m 0 min 0 min 0 W/m 9,7 km/h (2 Bft) 97,92 %
10.10.2020 21:58 9,3 C 7,8 C 7,8 C 93 % 1018,9 hPa 0,0 l/m 0 min 0 min 0 W/m 19,3 km/h (3 Bft) 100,00 %
10.10.2020 22:00 9,3 C 7,8 C 7,8 C 93 % 1018,9 hPa 0,0 l/m 0 min 0 min 0 W/m 16,1 km/h (3 Bft) 97,83 %
10.10.2020 22:02 9,3 C 7,8 C 7,8 C 93 % 1018,9 hPa 0,0 l/m 0 min 0 min 0 W/m 12,9 km/h (3 Bft) 97,96 %
10.10.2020 22:04 9,2 C 7,8 C 7,8 C 93 % 1018,9 hPa 0,0 l/m 0 min 0 min 0 W/m 16,1 km/h (3 Bft) 100,00 %
10.10.2020 22:06 9,2 C 7,8 C 7,8 C 93 % 1018,9 hPa 0,0 l/m 0 min 0 min 0 W/m 9,7 km/h (2 Bft) 100,00 %
10.10.2020 22:08 9,2 C 7,8 C 7,8 C 93 % 1018,9 hPa 0,0 l/m 0 min 0 min 0 W/m 6,4 km/h (2 Bft) 100,00 %
10.10.2020 22:10 9,2 C 7,8 C 7,8 C 93 % 1018,8 hPa 0,0 l/m 0 min 0 min 0 W/m 16,1 km/h (3 Bft) 97,87 %
10.10.2020 22:12 9,2 C 7,8 C 7,8 C 93 % 1018,9 hPa 0,0 l/m 0 min 0 min 0 W/m 22,5 km/h (4 Bft) 100,00 %
10.10.2020 22:14 9,2 C 7,8 C 7,8 C 93 % 1018,9 hPa 0,0 l/m 0 min 0 min 0 W/m 22,5 km/h (4 Bft) 100,00 %
10.10.2020 22:16 9,1 C 7,8 C 7,8 C 93 % 1018,9 hPa 0,0 l/m 0 min 0 min 0 W/m 12,9 km/h (3 Bft) 97,87 %
10.10.2020 22:18 9,1 C 7,8 C 7,8 C 94 % 1018,9 hPa 0,0 l/m 0 min 0 min 0 W/m 9,7 km/h (2 Bft) 95,74 %
10.10.2020 22:20 9,1 C 7,8 C 7,8 C 94 % 1018,9 hPa 0,0 l/m 0 min 0 min 0 W/m 9,7 km/h (2 Bft) 100,00 %
10.10.2020 22:22 9,1 C 7,8 C 7,8 C 94 % 1018,9 hPa 0,0 l/m 0 min 0 min 0 W/m 6,4 km/h (2 Bft) 95,83 %
10.10.2020 22:24 9,1 C 7,8 C 7,8 C 94 % 1018,9 hPa 0,0 l/m 0 min 0 min 0 W/m 9,7 km/h (2 Bft) 95,74 %
10.10.2020 22:26 9,1 C 7,8 C 7,8 C 94 % 1018,9 hPa 0,0 l/m 0 min 0 min 0 W/m 9,7 km/h (2 Bft) 97,92 %
10.10.2020 22:28 9,1 C 7,8 C 7,8 C 94 % 1018,9 hPa 0,0 l/m 0 min 0 min 0 W/m 6,4 km/h (2 Bft) 97,92 %
10.10.2020 22:30 9,1 C 7,8 C 7,8 C 94 % 1018,9 hPa 0,0 l/m 0 min 0 min 0 W/m 12,9 km/h (3 Bft) 97,92 %
10.10.2020 22:32 9,1 C 7,8 C 7,8 C 94 % 1018,9 hPa 0,0 l/m 0 min 0 min 0 W/m 6,4 km/h (2 Bft) 95,74 %
10.10.2020 22:34 9,1 C 7,8 C 7,8 C 94 % 1018,9 hPa 0,0 l/m 0 min 0 min 0 W/m 6,4 km/h (2 Bft) 95,74 %
10.10.2020 22:36 9,0 C 7,8 C 7,8 C 94 % 1018,9 hPa 0,0 l/m 0 min 0 min 0 W/m 6,4 km/h (2 Bft) 95,74 %
10.10.2020 22:38 9,0 C 7,8 C 7,2 C 94 % 1018,8 hPa 0,0 l/m 0 min 0 min 0 W/m 6,4 km/h (2 Bft) 97,87 %
10.10.2020 22:40 9,0 C 7,2 C 7,8 C 94 % 1018,9 hPa 0,0 l/m 0 min 0 min 0 W/m 12,9 km/h (3 Bft) 97,87 %
10.10.2020 22:42 8,9 C 7,2 C 7,2 C 94 % 1018,9 hPa 0,0 l/m 0 min 0 min 0 W/m 12,9 km/h (3 Bft) 97,87 %
10.10.2020 22:44 8,9 C 7,2 C 7,2 C 94 % 1018,9 hPa 0,0 l/m 0 min 0 min 0 W/m 12,9 km/h (3 Bft) 97,83 %
10.10.2020 22:46 8,9 C 7,8 C 7,8 C 94 % 1019,0 hPa 0,0 l/m 0 min 0 min 0 W/m 16,1 km/h (3 Bft) 97,87 %
10.10.2020 22:48 8,9 C 7,2 C 7,2 C 94 % 1018,9 hPa 0,0 l/m 0 min 0 min 0 W/m 9,7 km/h (2 Bft) 95,74 %
10.10.2020 22:50 8,8 C 7,8 C 7,8 C 94 % 1019,0 hPa 0,0 l/m 0 min 0 min 0 W/m 9,7 km/h (2 Bft) 97,56 %
10.10.2020 22:52 8,8 C 7,8 C 7,8 C 94 % 1019,0 hPa 0,0 l/m 0 min 0 min 0 W/m 16,1 km/h (3 Bft) 95,83 %
10.10.2020 22:54 8,8 C 7,8 C 7,8 C 95 % 1019,1 hPa 0,0 l/m 0 min 0 min 0 W/m 12,9 km/h (3 Bft) 97,87 %
10.10.2020 22:56 8,8 C 7,8 C 7,8 C 95 % 1019,1 hPa 0,0 l/m 0 min 0 min 0 W/m 3,2 km/h (1 Bft) 97,92 %
10.10.2020 22:58 8,8 C 7,8 C 7,8 C 95 % 1019,1 hPa 0,0 l/m 0 min 0 min 0 W/m 9,7 km/h (2 Bft) 100,00 %
10.10.2020 23:00 8,8 C 7,8 C 7,8 C 95 % 1019,0 hPa 0,0 l/m 0 min 0 min 0 W/m 12,9 km/h (3 Bft) 97,92 %
10.10.2020 23:02 8,8 C 7,8 C 7,8 C 95 % 1019,2 hPa 0,0 l/m 0 min 0 min 0 W/m 12,9 km/h (3 Bft) 100,00 %
10.10.2020 23:04 8,8 C 7,8 C 7,8 C 95 % 1019,1 hPa 0,0 l/m 0 min 0 min 0 W/m 9,7 km/h (2 Bft) 100,00 %
10.10.2020 23:06 8,8 C 7,8 C 7,8 C 95 % 1019,1 hPa 0,0 l/m 0 min 0 min 0 W/m 6,4 km/h (2 Bft) 97,83 %
10.10.2020 23:08 8,8 C 7,8 C 7,8 C 95 % 1019,1 hPa 0,0 l/m 0 min 0 min 0 W/m 12,9 km/h (3 Bft) 100,00 %
10.10.2020 23:10 8,8 C 7,8 C 7,8 C 95 % 1019,2 hPa 0,0 l/m 0 min 0 min 0 W/m 12,9 km/h (3 Bft) 97,87 %
10.10.2020 23:12 8,8 C 7,8 C 7,8 C 95 % 1019,2 hPa 0,0 l/m 0 min 0 min 0 W/m 9,7 km/h (2 Bft) 97,87 %
10.10.2020 23:14 8,8 C 7,8 C 7,8 C 95 % 1019,2 hPa 0,0 l/m 0 min 0 min 0 W/m 6,4 km/h (2 Bft) 95,74 %
10.10.2020 23:16 8,8 C 7,8 C 7,8 C 95 % 1019,2 hPa 0,0 l/m 0 min 0 min 0 W/m 6,4 km/h (2 Bft) 97,56 %
10.10.2020 23:18 8,8 C 7,8 C 7,8 C 95 % 1019,1 hPa 0,0 l/m 0 min 0 min 0 W/m 6,4 km/h (2 Bft) 95,74 %
10.10.2020 23:20 8,8 C 7,8 C 7,8 C 95 % 1019,2 hPa 0,0 l/m 0 min 0 min 0 W/m 6,4 km/h (2 Bft) 97,92 %
10.10.2020 23:22 8,7 C 7,8 C 7,8 C 95 % 1019,2 hPa 0,0 l/m 0 min 0 min 0 W/m 12,9 km/h (3 Bft) 95,83 %
10.10.2020 23:24 8,8 C 7,8 C 7,8 C 95 % 1019,2 hPa 0,0 l/m 0 min 0 min 0 W/m 6,4 km/h (2 Bft) 95,74 %
10.10.2020 23:26 8,8 C 7,8 C 7,8 C 95 % 1019,3 hPa 0,0 l/m 0 min 0 min 0 W/m 6,4 km/h (2 Bft) 95,74 %
10.10.2020 23:28 8,8 C 7,8 C 7,8 C 95 % 1019,2 hPa 0,0 l/m 0 min 0 min 0 W/m 12,9 km/h (3 Bft) 93,75 %
10.10.2020 23:30 8,8 C 7,8 C 7,8 C 95 % 1019,2 hPa 0,0 l/m 0 min 0 min 0 W/m 9,7 km/h (2 Bft) 95,74 %
10.10.2020 23:32 8,8 C 7,8 C 7,8 C 95 % 1019,2 hPa 0,0 l/m 0 min 0 min 0 W/m 9,7 km/h (2 Bft) 93,62 %
10.10.2020 23:34 8,8 C 7,8 C 7,8 C 95 % 1019,2 hPa 0,0 l/m 0 min 0 min 0 W/m 6,4 km/h (2 Bft) 95,74 %
10.10.2020 23:36 8,8 C 7,8 C 7,8 C 95 % 1019,2 hPa 0,0 l/m 0 min 0 min 0 W/m 12,9 km/h (3 Bft) 95,83 %
10.10.2020 23:38 8,8 C 7,8 C 7,8 C 96 % 1019,2 hPa 0,0 l/m 0 min 0 min 0 W/m 6,4 km/h (2 Bft) 95,74 %
10.10.2020 23:40 8,8 C 7,8 C 7,8 C 96 % 1019,2 hPa 0,0 l/m 0 min 0 min 0 W/m 16,1 km/h (3 Bft) 95,83 %
10.10.2020 23:42 8,8 C 7,8 C 7,8 C 96 % 1019,2 hPa 0,0 l/m 0 min 0 min 0 W/m 16,1 km/h (3 Bft) 93,48 %
10.10.2020 23:44 8,8 C 7,8 C 7,8 C 96 % 1019,2 hPa 0,0 l/m 0 min 0 min 0 W/m 16,1 km/h (3 Bft) 95,74 %
10.10.2020 23:46 8,7 C 7,8 C 7,8 C 96 % 1019,2 hPa 0,0 l/m 0 min 0 min 0 W/m 12,9 km/h (3 Bft) 93,75 %
10.10.2020 23:48 8,8 C 7,8 C 7,8 C 96 % 1019,2 hPa 0,0 l/m 0 min 0 min 0 W/m 9,7 km/h (2 Bft) 95,74 %
10.10.2020 23:50 8,7 C 7,8 C 7,8 C 96 % 1019,2 hPa 0,0 l/m 0 min 0 min 0 W/m 9,7 km/h (2 Bft) 93,75 %
10.10.2020 23:52 8,7 C 7,8 C 7,8 C 96 % 1019,2 hPa 0,0 l/m 0 min 0 min 0 W/m 6,4 km/h (2 Bft) 95,65 %
10.10.2020 23:54 8,7 C 7,8 C 7,8 C 96 % 1019,2 hPa 0,0 l/m 0 min 0 min 0 W/m 12,9 km/h (3 Bft) 97,22 %
10.10.2020 23:56 8,7 C 7,8 C 7,8 C 96 % 1019,2 hPa 0,0 l/m 0 min 0 min 0 W/m 12,9 km/h (3 Bft) 95,74 %
10.10.2020 23:58 8,7 C 7,8 C 7,8 C 96 % 1019,3 hPa 0,0 l/m 0 min 0 min 0 W/m 9,7 km/h (2 Bft) 92,00 %
_ Min-Zeit 08:12 07:26 08:00 15:04 00:00 - - - - 00:32 05:38
Minimum _ 7,2 C 6,1 C 6,1 C 67 % 1017,2 hPa - - - - 0,0 km/h (0 Bft) 47,37 %
_ Max-Zeit 14:46 13:46 13:44 08:26 12:38 20:58 12:08 02:14 13:36 19:50 00:16
Maximum _ 15,1 C 21,1 C 14,4 C 97 % 1021,2 hPa 0,2 l/m 4 min 2 min 743 W/m 35,4 km/h
S-SO (5 Bft)
100,00 %
Durchschnitt _ 10,5 C 10,3 C 9,2 C 86 % 1019,4 hPa #0,8 l/m #3:52 h #1:30 h 207 W/m 11,7 km/h (2 Bft) 97,43 %
© 2020 W. Hausmann